FW7316 Weather Reports


Display with metric or nautical units.
time (UTC)temp
F
wind
direction
speed
MPH
gust
MPH
rain 1hr
in
rain 24hr
in
rain mn
in
humidity
%
barometer
mb
20260905093905 92 303 7.0 11.0 0.00 0.00 0.00 35 1015.5
20260905093808 92 294 6.0 11.0 0.00 0.00 0.00 34 1015.4
20260905093706 91 279 6.0 11.0 0.00 0.00 0.00 36 1015.5
20260905093604 91 331 5.0 11.0 0.00 0.00 0.00 35 1015.4
20260905093305 91 314 2.0 11.0 0.00 0.00 0.00 35 1015.4
20260905093208 91 277 6.0 11.0 0.00 0.00 0.00 35 1015.4
20260905092907 91 338 8.0 10.0 0.00 0.00 0.00 35 1015.5
20260905092805 91 311 5.0 10.0 0.00 0.00 0.00 36 1015.5
20260905092705 91 313 7.0 9.0 0.00 0.00 0.00 35 1015.4
20260905092607 91 298 3.0 9.0 0.00 0.00 0.00 34 1015.4
20260905092505 91 288 3.0 9.0 0.00 0.00 0.00 34 1015.4
20260905092405 91 308 3.0 9.0 0.00 0.00 0.00 35 1015.4
20260905092307 91 323 5.0 11.0 0.00 0.00 0.00 35 1015.5
20260905092105 92 345 7.0 11.0 0.00 0.00 0.00 34 1015.5
20260905092008 92 288 2.0 11.0 0.00 0.00 0.00 35 1015.5
20260905091905 92 277 5.0 11.0 0.00 0.00 0.00 35 1015.5
20260905091707 92 319 6.0 11.0 0.00 0.00 0.00 36 1015.4
20260905091604 92 355 7.0 11.0 0.00 0.00 0.00 36 1015.4
20260905091505 91 330 5.0 11.0 0.00 0.00 0.00 38 1015.4
20260905091407 91 319 9.0 11.0 0.00 0.00 0.00 36 1015.4
20260905091205 91 342 4.0 12.0 0.00 0.00 0.00 36 1015.4
20260905091107 91 329 5.0 12.0 0.00 0.00 0.00 36 1015.4
20260905091005 91 360 6.0 12.0 0.00 0.00 0.00 35 1015.4
20260905090904 91 349 5.0 12.0 0.00 0.00 0.00 36 1015.4
20260905090807 91 338 6.0 12.0 0.00 0.00 0.00 35 1015.4
20260905090705 91 320 5.0 12.0 0.00 0.00 0.00 37 1015.4
20260905090606 91 331 9.0 12.0 0.00 0.00 0.00 37 1015.4
20260905090508 91 329 8.0 12.0 0.00 0.00 0.00 37 1015.4
20260905090404 91 322 8.0 12.0 0.00 0.00 0.00 37 1015.4
20260905090305 91 332 9.0 12.0 0.00 0.00 0.00 36 1015.4
20260905090208 91 306 10.0 11.0 0.00 0.00 0.00 36 1015.4
20260905090105 91 312 6.0 11.0 0.00 0.00 0.00 37 1015.4
20260905085907 91 5 2.0 9.0 0.00 0.00 0.00 37 1015.4
20260905085804 90 336 9.0 9.0 0.00 0.00 0.00 37 1015.4
20260905085704 90 75 4.0 9.0 0.00 0.00 0.00 38 1015.4
20260905085607 90 342 8.0 9.0 0.00 0.00 0.00 37 1015.4
20260905085505 90 351 6.0 9.0 0.00 0.00 0.00 38 1015.4
20260905085405 90 5 4.0 9.0 0.00 0.00 0.00 37 1015.3
20260905085308 90 342 6.0 9.0 0.00 0.00 0.00 38 1015.3
20260905085205 90 341 5.0 9.0 0.00 0.00 0.00 37 1015.3
20260905085105 89 300 4.0 9.0 0.00 0.00 0.00 40 1015.3
20260905085008 89 323 7.0 9.0 0.00 0.00 0.00 38 1015.3
20260905084905 89 348 8.0 9.0 0.00 0.00 0.00 38 1015.2
20260905084806 89 329 7.0 9.0 0.00 0.00 0.00 38 1015.2
20260905084707 89 348 4.0 9.0 0.00 0.00 0.00 38 1015.3
20260905084605 89 13 5.0 9.0 0.00 0.00 0.00 38 1015.2
20260905084505 89 333 5.0 9.0 0.00 0.00 0.00 39 1015.3
20260905084408 89 346 7.0 8.0 0.00 0.00 0.00 40 1015.2
20260905084306 89 28 4.0 8.0 0.00 0.00 0.00 40 1015.3
20260905084206 89 317 7.0 8.0 0.00 0.00 0.00 39 1015.3
20260905084107 89 323 8.0 8.0 0.00 0.00 0.00 38 1015.3
20260905084005 89 301 5.0 8.0 0.00 0.00 0.00 37 1015.2
20260905083905 89 275 4.0 8.0 0.00 0.00 0.00 38 1015.2
20260905083807 89 300 6.0 8.0 0.00 0.00 0.00 39 1015.2
20260905083705 89 298 5.0 8.0 0.00 0.00 0.00 39 1015.2
20260905083604 88 315 3.0 8.0 0.00 0.00 0.00 39 1015.1
20260905083508 88 323 2.0 10.0 0.00 0.00 0.00 38 1015.0
20260905083405 88 292 2.0 10.0 0.00 0.00 0.00 40 1015.1
20260905083304 88 329 3.0 10.0 0.00 0.00 0.00 41 1015.0
20260905083105 88 324 3.0 10.0 0.00 0.00 0.00 41 1015.1
20260905083007 87 207 4.0 10.0 0.00 0.00 0.00 43 1015.1
20260905082907 87 269 3.0 10.0 0.00 0.00 0.00 41 1015.0
20260905082805 87 280 3.0 10.0 0.00 0.00 0.00 41 1015.0
20260905082704 87 274 2.0 10.0 0.00 0.00 0.00 40 1015.1
20260905082505 87 290 9.0 10.0 0.00 0.00 0.00 41 1015.0
20260905082404 87 256 5.0 8.0 0.00 0.00 0.00 42 1015.0
20260905082205 87 286 5.0 8.0 0.00 0.00 0.00 41 1015.0
20260905082008 87 298 7.0 8.0 0.00 0.00 0.00 42 1015.0
20260905081905 87 223 4.0 8.0 0.00 0.00 0.00 44 1015.0
20260905081805 87 319 3.0 8.0 0.00 0.00 0.00 43 1015.0
20260905081707 87 299 4.0 8.0 0.00 0.00 0.00 43 1015.0
20260905081604 87 279 3.0 8.0 0.00 0.00 0.00 44 1015.0
20260905081504 86 316 6.0 8.0 0.00 0.00 0.00 43 1015.0
20260905081407 86 276 6.0 8.0 0.00 0.00 0.00 44 1014.9
20260905081305 86 331 6.0 8.0 0.00 0.00 0.00 43 1014.9
20260905081205 86 306 5.0 8.0 0.00 0.00 0.00 46 1014.9
20260905081108 86 324 5.0 7.0 0.00 0.00 0.00 46 1014.9
20260905081005 86 329 4.0 7.0 0.00 0.00 0.00 45 1015.0
20260905080905 86 306 2.0 7.0 0.00 0.00 0.00 45 1015.0
20260905080807 85 355 4.0 7.0 0.00 0.00 0.00 46 1015.0
20260905080705 85 330 4.0 8.0 0.00 0.00 0.00 46 1015.0
20260905080604 85 320 5.0 8.0 0.00 0.00 0.00 47 1014.9
20260905080405 85 293 3.0 8.0 0.00 0.00 0.00 46 1014.9
20260905080304 85 315 2.0 8.0 0.00 0.00 0.00 47 1014.9
20260905080206 85 296 3.0 8.0 0.00 0.00 0.00 46 1014.8
20260905080117 85 305 4.0 8.0 0.00 0.00 0.00 47 1014.8
20260905080007 85 292 3.0 8.0 0.00 0.00 0.00 47 1014.8
20260905075906 85 306 4.0 8.0 0.00 0.00 0.00 47 1014.9
20260905075704 85 284 8.0 8.0 0.00 0.00 0.00 47 1014.9
20260905075607 84 308 6.0 7.0 0.00 0.00 0.00 48 1014.9
20260905075505 84 292 4.0 7.0 0.00 0.00 0.00 47 1014.9
20260905075404 84 310 4.0 7.0 0.00 0.00 0.00 48 1014.9
20260905075307 84 295 3.0 7.0 0.00 0.00 0.00 48 1014.9
20260905075205 84 296 5.0 7.0 0.00 0.00 0.00 48 1014.9
20260905075104 84 282 4.0 8.0 0.00 0.00 0.00 48 1014.9
20260905074805 84 338 4.0 8.0 0.00 0.00 0.00 50 1014.9
20260905074708 84 351 2.0 8.0 0.00 0.00 0.00 50 1014.8
20260905074605 84 355 6.0 8.0 0.00 0.00 0.00 50 1014.9
20260905074506 84 325 4.0 8.0 0.00 0.00 0.00 49 1014.9
20260905074407 83 330 4.0 8.0 0.00 0.00 0.00 51 1014.8
20260905074305 83 342 5.0 8.0 0.00 0.00 0.00 51 1014.8
20260905074107 83 346 6.0 8.0 0.00 0.00 0.00 50 1014.8
20260905074006 83 331 5.0 6.0 0.00 0.00 0.00 51 1014.8
20260905073906 83 328 4.0 6.0 0.00 0.00 0.00 51 1014.8
20260905073807 83 333 2.0 6.0 0.00 0.00 0.00 51 1014.8
20260905073704 83 294 5.0 6.0 0.00 0.00 0.00 50 1014.7
20260905073604 83 321 2.0 6.0 0.00 0.00 0.00 50 1014.8
20260905073508 83 313 3.0 6.0 0.00 0.00 0.00 51 1014.8
20260905073404 83 338 5.0 6.0 0.00 0.00 0.00 50 1014.7
20260905073304 82 328 4.0 6.0 0.00 0.00 0.00 50 1014.7
20260905073207 82 333 3.0 6.0 0.00 0.00 0.00 51 1014.7
20260905072805 82 300 1.0 6.0 0.00 0.00 0.00 49 1014.5
20260905072704 82 345 4.0 6.0 0.00 0.00 0.00 49 1014.6
20260905072608 82 334 1.0 6.0 0.00 0.00 0.00 50 1014.6
20260905072505 82 348 4.0 6.0 0.00 0.00 0.00 50 1014.6
20260905072405 82 323 3.0 6.0 0.00 0.00 0.00 50 1014.6
20260905072307 82 329 4.0 5.0 0.00 0.00 0.00 49 1014.7
20260905072204 82 335 3.0 5.0 0.00 0.00 0.00 48 1014.6
20260905072104 82 45 1.0 5.0 0.00 0.00 0.00 49 1014.6
20260905072010 82 45 1.0 6.0 0.00 0.00 0.00 49 1014.6
20260905071905 82 344 1.0 6.0 0.00 0.00 0.00 50 1014.6
20260905071805 82 38 2.0 6.0 0.00 0.00 0.00 50 1014.6
20260905071707 82 38 2.0 6.0 0.00 0.00 0.00 50 1014.6
20260905071605 81 38 1.0 6.0 0.00 0.00 0.00 50 1014.6
20260905071505 81 38 1.0 6.0 0.00 0.00 0.00 50 1014.6
20260905071407 81 38 4.0 6.0 0.00 0.00 0.00 50 1014.6
20260905071304 81 36 4.0 6.0 0.00 0.00 0.00 49 1014.6
20260905071205 81 5 4.0 6.0 0.00 0.00 0.00 49 1014.6
20260905071107 81 26 5.0 6.0 0.00 0.00 0.00 50 1014.5
20260905071005 81 26 4.0 6.0 0.00 0.00 0.00 50 1014.6
20260905070604 81 30 5.0 5.0 0.00 0.00 0.00 51 1014.4
20260905070405 80 22 4.0 5.0 0.00 0.00 0.00 50 1014.4
20260905070303 80 39 4.0 5.0 0.00 0.00 0.00 50 1014.4
20260905070104 80 9 3.0 5.0 0.00 0.00 0.00 50 1014.4
20260905070008 80 9 3.0 5.0 0.00 0.00 0.00 49 1014.4
20260905065910 80 27 3.0 5.0 0.00 0.00 0.00 49 1014.4
20260905065806 80 27 4.0 5.0 0.00 0.00 0.00 49 1014.4
20260905065705 80 27 4.0 5.0 0.00 0.00 0.00 50 1014.4
20260905065607 80 19 3.0 5.0 0.00 0.00 0.00 49 1014.4
20260905065505 80 20 2.0 4.0 0.00 0.00 0.00 50 1014.3
20260905065404 80 28 3.0 4.0 0.00 0.00 0.00 50 1014.3
20260905065307 80 5 3.0 4.0 0.00 0.00 0.00 50 1014.3
20260905065205 80 29 4.0 4.0 0.00 0.00 0.00 51 1014.3
20260905065104 80 21 2.0 3.0 0.00 0.00 0.00 50 1014.3
20260905065007 80 20 2.0 5.0 0.00 0.00 0.00 50 1014.3
20260905064903 80 36 1.0 5.0 0.00 0.00 0.00 50 1014.3
20260905064805 80 32 2.0 5.0 0.00 0.00 0.00 52 1014.2
20260905064707 80 44 1.0 5.0 0.00 0.00 0.00 50 1014.3
20260905064605 80 44 2.0 5.0 0.00 0.00 0.00 49 1014.3
20260905064505 80 44 1.0 5.0 0.00 0.00 0.00 51 1014.3
20260905064408 80 81 1.0 5.0 0.00 0.00 0.00 52 1014.3
20260905064305 80 81 2.0 5.0 0.00 0.00 0.00 52 1014.3
20260905064204 80 83 1.0 5.0 0.00 0.00 0.00 52 1014.2
20260905064107 79 80 1.0 5.0 0.00 0.00 0.00 52 1014.2
20260905063905 79 84 2.0 5.0 0.00 0.00 0.00 53 1014.2
20260905063807 79 90 3.0 5.0 0.00 0.00 0.00 52 1014.2
20260905063305 78 119 2.0 2.0 0.00 0.00 0.00 53 1014.4
20260905063207 78 139 1.0 2.0 0.00 0.00 0.00 53 1014.5
20260905063104 78 139 1.0 3.0 0.00 0.00 0.00 53 1014.5
20260905063005 77 139 1.0 4.0 0.00 0.00 0.00 54 1014.6
20260905062804 77 139 1.0 4.0 0.00 0.00 0.00 54 1014.5
20260905062704 77 139 2.0 4.0 0.00 0.00 0.00 54 1014.5
20260905062607 77 139 1.0 4.0 0.00 0.00 0.00 55 1014.5
20260905062504 76 138 1.0 4.0 0.00 0.00 0.00 55 1014.5
20260905062307 76 138 0.0 4.0 0.00 0.00 0.00 57 1014.5
20260905062205 76 138 2.0 4.0 0.00 0.00 0.00 58 1014.5
20260905062105 76 138 2.0 4.0 0.00 0.00 0.00 58 1014.4
20260905062008 76 128 3.0 4.0 0.00 0.00 0.00 59 1014.4
20260905061905 75 126 2.0 4.0 0.00 0.00 0.00 59 1014.4
20260905061805 75 113 3.0 4.0 0.00 0.00 0.00 60 1014.4
20260905061707 75 109 3.0 4.0 0.00 0.00 0.00 60 1014.3
20260905061605 75 135 3.0 4.0 0.00 0.00 0.00 60 1014.4
20260905061505 74 130 3.0 3.0 0.00 0.00 0.00 60 1014.3
20260905061407 74 131 1.0 3.0 0.00 0.00 0.00 60 1014.3
20260905061006 73 164 2.0 2.0 0.00 0.00 0.00 59 1014.4
20260905060905 73 164 0.0 2.0 0.00 0.00 0.00 61 1014.5
20260905060806 73 164 0.0 2.0 0.00 0.00 0.00 61 1014.5
20260905060706 73 164 1.0 2.0 0.00 0.00 0.00 61 1014.5
20260905060604 73 164 2.0 2.0 0.00 0.00 0.00 63 1014.6
20260905060507 73 164 1.0 2.0 0.00 0.00 0.00 63 1014.6
20260905060404 72 126 1.0 2.0 0.00 0.00 0.00 63 1014.6
20260905060304 72 117 2.0 2.0 0.00 0.00 0.00 64 1014.6
20260905060207 72 264 2.0 2.0 0.00 0.00 0.00 65 1014.6
20260905060117 71 264 1.0 2.0 0.00 0.00 0.00 63 1014.6
20260905060009 71 264 0.0 2.0 0.00 0.00 0.00 63 1014.6
20260905055908 71 264 0.0 2.0 0.00 0.00 0.00 63 1014.6
20260905055804 71 264 0.0 3.0 0.00 0.00 0.00 64 1014.7
20260905055704 70 264 0.0 3.0 0.00 0.00 0.00 65 1014.7
20260905055607 70 264 1.0 3.0 0.00 0.00 0.00 65 1014.6
20260905055504 70 264 1.0 3.0 0.00 0.00 0.00 65 1014.6
20260905055404 70 264 1.0 3.0 0.00 0.00 0.00 66 1014.6
20260905055205 70 264 1.0 4.0 0.00 0.00 0.00 67 1014.6
20260905055008 69 264 1.0 4.0 0.00 0.00 0.00 67 1014.7
20260905054906 69 264 1.0 4.0 0.00 0.00 0.00 68 1014.7
20260905054804 69 264 2.0 4.0 0.00 0.00 0.00 68 1014.7
20260905054707 69 264 2.0 4.0 0.00 0.00 0.00 69 1014.6
20260905054605 68 264 1.0 4.0 0.00 0.00 0.00 69 1014.6
20260905054407 68 264 2.0 4.0 0.00 0.00 0.00 69 1014.8
20260905054108 67 270 2.0 4.0 0.00 0.00 0.00 70 1014.7
20260905053905 67 234 3.0 4.0 0.00 0.00 0.00 70 1014.6
20260905053807 67 218 3.0 4.0 0.00 0.00 0.00 70 1014.6
20260905053706 67 218 3.0 4.0 0.00 0.00 0.00 71 1014.6
20260905053603 67 207 3.0 4.0 0.00 0.00 0.00 71 1014.6
20260905053405 67 206 4.0 4.0 0.00 0.00 0.00 70 1014.6
20260905053304 66 207 3.0 4.0 0.00 0.00 0.00 71 1014.5
20260905053207 66 207 3.0 4.0 0.00 0.00 0.00 71 1014.6
20260905053005 66 193 4.0 4.0 0.00 0.00 0.00 71 1014.5
20260905052907 66 196 4.0 5.0 0.00 0.00 0.00 71 1014.5
20260905052805 66 32 3.0 4.0 0.00 0.00 0.00 72 1014.5
20260905052704 66 32 4.0 4.0 0.00 0.00 0.00 72 1014.4
20260905052607 66 32 3.0 4.0 0.00 0.00 0.00 71 1014.4
20260905052505 66 32 1.0 4.0 0.00 0.00 0.00 71 1014.5
20260905052404 66 32 1.0 4.0 0.00 0.00 0.00 72 1014.5
20260905052308 66 32 3.0 4.0 0.00 0.00 0.00 72 1014.5
20260905052204 65 32 3.0 4.0 0.00 0.00 0.00 72 1014.5
20260905052104 65 32 2.0 4.0 0.00 0.00 0.00 73 1014.6
20260905052009 65 32 1.0 4.0 0.00 0.00 0.00 72 1014.6
20260905051903 65 32 2.0 4.0 0.00 0.00 0.00 72 1014.5
20260905051804 65 32 1.0 4.0 0.00 0.00 0.00 72 1014.6
20260905051707 65 32 1.0 4.0 0.00 0.00 0.00 72 1014.6
20260905051605 65 32 2.0 4.0 0.00 0.00 0.00 71 1014.6
20260905051505 65 32 2.0 4.0 0.00 0.00 0.00 71 1014.6
20260905051107 65 32 2.0 5.0 0.00 0.00 0.00 71 1014.6
20260905051006 65 32 2.0 5.0 0.00 0.00 0.00 71 1014.6
20260905050904 65 32 2.0 5.0 0.00 0.00 0.00 70 1014.6
20260905050807 65 32 1.0 5.0 0.00 0.00 0.00 70 1014.5
20260905050705 65 32 2.0 5.0 0.00 0.00 0.00 70 1014.5
20260905050604 65 32 3.0 5.0 0.00 0.00 0.00 70 1014.5
20260905050405 65 32 2.0 5.0 0.00 0.00 0.00 70 1014.4
20260905050305 65 32 4.0 5.0 0.00 0.00 0.00 70 1014.4
20260905050207 65 32 3.0 4.0 0.00 0.00 0.00 70 1014.4
20260905050104 64 32 3.0 4.0 0.00 0.00 0.00 71 1014.3
20260905050008 64 32 4.0 4.0 0.00 0.00 0.00 72 1014.3
20260905045906 64 32 3.0 4.0 0.00 0.00 0.00 72 1014.3
20260905045805 64 32 2.0 4.0 0.00 0.00 0.00 72 1014.2
20260905045705 65 32 2.0 4.0 0.00 0.00 0.00 72 1014.3
20260905045607 65 32 2.0 4.0 0.00 0.00 0.00 71 1014.3
20260905045505 65 32 2.0 4.0 0.00 0.00 0.00 71 1014.3
20260905045404 65 32 1.0 4.0 0.00 0.00 0.00 71 1014.2
20260905045205 65 32 3.0 4.0 0.00 0.00 0.00 70 1014.2
20260905044707 65 32 2.0 4.0 0.00 0.00 0.00 68 1014.2
20260905044605 66 32 3.0 4.0 0.00 0.00 0.00 68 1014.1
20260905044505 66 32 3.0 4.0 0.00 0.00 0.00 68 1014.1
20260905044407 66 32 2.0 4.0 0.00 0.00 0.00 68 1014.2
20260905044304 66 32 2.0 4.0 0.00 0.00 0.00 68 1014.2
20260905044205 66 32 3.0 4.0 0.00 0.00 0.00 68 1014.1
20260905044107 66 32 3.0 4.0 0.00 0.00 0.00 67 1014.1
20260905044006 66 32 4.0 4.0 0.00 0.00 0.00 67 1014.1
20260905043905 67 32 1.0 4.0 0.00 0.00 0.00 66 1014.1
20260905043807 67 32 3.0 4.0 0.00 0.00 0.00 66 1014.1
20260905043704 67 32 2.0 4.0 0.00 0.00 0.00 65 1014.0
20260905043605 67 32 3.0 4.0 0.00 0.00 0.00 65 1014.0
20260905043506 67 32 4.0 4.0 0.00 0.00 0.00 64 1014.0
20260905043305 67 32 3.0 4.0 0.00 0.00 0.00 64 1014.1
20260905043207 68 32 3.0 4.0 0.00 0.00 0.00 63 1014.1
20260905043105 68 32 3.0 4.0 0.00 0.00 0.00 63 1014.1
20260905043006 68 32 3.0 4.0 0.00 0.00 0.00 63 1014.1
20260905042907 68 32 1.0 4.0 0.00 0.00 0.00 63 1014.1
20260905042704 68 32 2.0 5.0 0.00 0.00 0.00 62 1014.0
20260905042608 69 32 2.0 5.0 0.00 0.00 0.00 62 1014.0
20260905042505 69 32 3.0 5.0 0.00 0.00 0.00 61 1014.0
20260905042404 69 32 3.0 5.0 0.00 0.00 0.00 61 1014.0
20260905042308 69 32 3.0 6.0 0.00 0.00 0.00 60 1014.1
20260905042205 69 32 2.0 6.0 0.00 0.00 0.00 60 1014.1
20260905042105 70 32 2.0 6.0 0.00 0.00 0.00 60 1014.1
20260905042008 70 32 2.0 6.0 0.00 0.00 0.00 59 1014.1
20260905041805 70 32 5.0 6.0 0.00 0.00 0.00 59 1014.1
20260905041605 70 32 2.0 6.0 0.00 0.00 0.00 59 1014.1
20260905041505 70 32 4.0 6.0 0.00 0.00 0.00 59 1014.1
20260905041407 70 32 4.0 6.0 0.00 0.00 0.00 58 1014.1
20260905041304 70 32 2.0 6.0 0.00 0.00 0.00 58 1014.1
20260905041204 70 32 4.0 6.0 0.00 0.00 0.00 58 1014.0
20260905041107 70 32 5.0 6.0 0.00 0.00 0.00 58 1014.0
20260905041006 70 32 3.0 6.0 0.00 0.00 0.00 58 1014.0
20260905040905 71 22 4.0 6.0 0.00 0.00 0.00 58 1014.0
20260905040807 71 28 4.0 6.0 0.00 0.00 0.00 57 1014.0
20260905040705 71 28 5.0 5.0 0.00 0.00 0.00 56 1014.0
20260905040604 71 29 4.0 5.0 0.00 0.00 0.00 57 1014.0
20260905040507 71 17 3.0 5.0 0.00 0.00 0.00 56 1014.0
20260905040404 72 23 2.0 5.0 0.00 0.00 0.00 54 1013.9
20260905040306 72 39 4.0 5.0 0.00 0.00 0.00 55 1014.0
20260905040206 72 27 4.0 5.0 0.00 0.00 0.00 55 1014.0
20260905040117 72 27 2.0 5.0 0.00 0.00 0.00 54 1014.0
20260905040008 72 27 4.0 5.0 0.00 0.00 0.00 55 1014.0
20260905035607 73 27 2.0 3.0 0.00 0.00 0.00 52 1014.1
20260905035504 73 27 1.0 3.0 0.00 0.00 0.00 52 1014.0
20260905035404 73 27 1.0 3.0 0.00 0.00 0.00 50 1014.0
20260905035307 74 27 2.0 3.0 0.00 0.00 0.00 50 1013.9
20260905035204 74 27 1.0 4.0 0.00 0.00 0.00 50 1014.0
20260905035104 74 27 2.0 4.0 0.00 0.00 0.00 49 1014.0
20260905034903 75 27 2.0 5.0 0.00 0.00 0.00 49 1014.0
20260905034707 76 27 1.0 5.0 0.00 0.00 0.00 48 1013.9
20260905034604 76 27 2.0 5.0 0.00 0.00 0.00 47 1014.0
20260905034506 76 27 2.0 5.0 0.00 0.00 0.00 47 1014.0
20260905034407 77 27 2.0 5.0 0.00 0.00 0.00 47 1014.0
20260905034304 77 27 2.0 8.0 0.00 0.00 0.00 46 1014.1
20260905034204 77 27 2.0 8.0 0.00 0.00 0.00 45 1014.1
20260905034107 78 27 2.0 8.0 0.00 0.00 0.00 44 1014.1
20260905034005 78 27 4.0 8.0 0.00 0.00 0.00 44 1014.0
20260905033905 79 27 4.0 8.0 0.00 0.00 0.00 43 1014.0
20260905033807 79 34 4.0 8.0 0.00 0.00 0.00 42 1014.0
20260905033703 80 31 3.0 8.0 0.00 0.00 0.00 42 1014.0
20260905033604 80 355 2.0 10.0 0.00 0.00 0.00 43 1014.0
20260905033507 80 219 2.0 10.0 0.00 0.00 0.00 43 1014.0
20260905033404 80 232 3.0 10.0 0.00 0.00 0.00 43 1013.9
20260905033305 80 186 4.0 10.0 0.00 0.00 0.00 43 1014.0
20260905033105 80 217 7.0 10.0 0.00 0.00 0.00 43 1014.0
20260905032906 80 222 5.0 10.0 0.00 0.00 0.00 43 1013.9
20260905032804 80 199 4.0 10.0 0.00 0.00 0.00 43 1013.9
20260905032704 80 212 6.0 13.0 0.00 0.00 0.00 43 1013.9
20260905032606 80 215 4.0 13.0 0.00 0.00 0.00 43 1013.9
20260905032505 80 209 7.0 13.0 0.00 0.00 0.00 43 1013.9
20260905032405 80 197 5.0 13.0 0.00 0.00 0.00 43 1013.9
20260905032307 80 214 5.0 13.0 0.00 0.00 0.00 43 1013.9
20260905032204 80 202 7.0 13.0 0.00 0.00 0.00 44 1013.9
20260905032104 80 198 7.0 13.0 0.00 0.00 0.00 44 1013.9
20260905032008 80 210 6.0 13.0 0.00 0.00 0.00 44 1013.9
20260905031905 80 211 6.0 13.0 0.00 0.00 0.00 44 1013.8
20260905031805 80 212 9.0 13.0 0.00 0.00 0.00 44 1013.8
20260905031707 80 221 12.0 13.0 0.00 0.00 0.00 44 1013.9
20260905031604 80 232 9.0 12.0 0.00 0.00 0.00 44 1013.9
20260905031505 80 188 8.0 12.0 0.00 0.00 0.00 44 1013.9
20260905031407 80 189 10.0 12.0 0.00 0.00 0.00 44 1013.9
20260905031305 80 203 8.0 12.0 0.00 0.00 0.00 44 1013.9
20260905031204 80 216 8.0 12.0 0.00 0.00 0.00 44 1014.0
20260905031108 80 203 8.0 12.0 0.00 0.00 0.00 44 1014.0
20260905031005 79 203 6.0 12.0 0.00 0.00 0.00 45 1013.9
20260905030904 79 219 6.0 12.0 0.00 0.00 0.00 44 1013.9
20260905030807 79 228 8.0 12.0 0.00 0.00 0.00 45 1013.9
20260905030704 79 202 5.0 12.0 0.00 0.00 0.00 45 1013.9
20260905030605 79 207 9.0 12.0 0.00 0.00 0.00 44 1014.0
20260905030507 79 240 8.0 12.0 0.00 0.00 0.00 45 1014.0
20260905030404 79 224 9.0 12.0 0.00 0.00 0.00 45 1014.0
20260905030305 80 203 7.0 13.0 0.00 0.00 0.00 45 1014.0
20260905030207 80 232 6.0 13.0 0.00 0.00 0.00 45 1014.1
20260905030105 80 236 5.0 13.0 0.00 0.00 0.00 45 1014.1
20260905030007 80 234 8.0 13.0 0.00 0.00 0.00 45 1014.1
20260905025803 80 232 7.0 15.0 0.00 0.00 0.00 44 1014.1
20260905025704 80 228 5.0 16.0 0.00 0.00 0.00 45 1014.1
20260905025606 80 223 8.0 16.0 0.00 0.00 0.00 45 1014.1
20260905025504 80 217 10.0 16.0 0.00 0.00 0.00 45 1014.1
20260905025404 80 225 7.0 16.0 0.00 0.00 0.00 45 1014.1
20260905025307 80 225 8.0 16.0 0.00 0.00 0.00 45 1014.1
20260905025204 80 244 8.0 16.0 0.00 0.00 0.00 45 1014.1
20260905025104 80 229 5.0 16.0 0.00 0.00 0.00 45 1014.1
20260905025009 80 215 8.0 16.0 0.00 0.00 0.00 45 1014.1
20260905024904 79 218 10.0 16.0 0.00 0.00 0.00 45 1014.1
20260905024804 79 234 13.0 16.0 0.00 0.00 0.00 45 1014.1
20260905024708 79 229 15.0 16.0 0.00 0.00 0.00 45 1014.1
20260905024604 79 218 13.0 13.0 0.00 0.00 0.00 45 1014.1
20260905024505 79 225 9.0 14.0 0.00 0.00 0.00 45 1014.1
20260905024407 79 226 8.0 14.0 0.00 0.00 0.00 45 1014.1
20260905024204 79 215 10.0 16.0 0.00 0.00 0.00 45 1014.0
20260905024106 79 202 6.0 16.0 0.00 0.00 0.00 45 1014.1
20260905023904 79 234 8.0 16.0 0.00 0.00 0.00 45 1014.1
20260905023807 79 242 9.0 16.0 0.00 0.00 0.00 46 1014.1
20260905023704 79 238 9.0 16.0 0.00 0.00 0.00 46 1014.1
20260905023304 77 217 12.0 17.0 0.00 0.00 0.00 47 1014.1
20260905023207 77 232 15.0 16.0 0.00 0.00 0.00 49 1014.1
20260905023104 76 224 8.0 15.0 0.00 0.00 0.00 49 1014.1
20260905023005 76 200 9.0 15.0 0.00 0.00 0.00 49 1014.1
20260905022907 75 223 13.0 13.0 0.00 0.00 0.00 51 1014.1
20260905022805 75 218 10.0 11.0 0.00 0.00 0.00 51 1014.1
20260905022704 74 222 6.0 11.0 0.00 0.00 0.00 52 1014.1
20260905022607 74 229 11.0 11.0 0.00 0.00 0.00 53 1014.1
20260905022514 73 236 7.0 11.0 0.00 0.00 0.00 53 1014.1
20260905022308 72 226 6.0 11.0 0.00 0.00 0.00 55 1014.1
20260905022205 72 239 9.0 11.0 0.00 0.00 0.00 55 1014.1
20260905022104 71 211 8.0 11.0 0.00 0.00 0.00 56 1014.1
20260905021905 70 221 5.0 10.0 0.00 0.00 0.00 58 1014.1
20260905021805 70 219 6.0 9.0 0.00 0.00 0.00 58 1014.1
20260905021708 69 223 4.0 9.0 0.00 0.00 0.00 58 1014.1
20260905021408 68 215 5.0 9.0 0.00 0.00 0.00 61 1014.2
20260905021107 67 215 4.0 7.0 0.00 0.00 0.00 62 1014.1
20260905021006 66 222 8.0 8.0 0.00 0.00 0.00 62 1014.1
20260905020904 66 201 7.0 8.0 0.00 0.00 0.00 63 1014.1
20260905020808 66 219 7.0 8.0 0.00 0.00 0.00 64 1014.1
20260905020705 66 193 5.0 7.0 0.00 0.00 0.00 64 1014.1
20260905020603 66 208 5.0 7.0 0.00 0.00 0.00 63 1014.0
20260905020508 66 191 4.0 6.0 0.00 0.00 0.00 64 1014.1
20260905020405 66 196 4.0 4.0 0.00 0.00 0.00 64 1014.1
20260905020304 66 190 4.0 4.0 0.00 0.00 0.00 64 1014.1
20260905015907 66 275 1.0 4.0 0.00 0.00 0.00 65 1014.1
20260905015804 66 207 1.0 4.0 0.00 0.00 0.00 65 1014.1
20260905015704 66 261 3.0 4.0 0.00 0.00 0.00 64 1014.1
20260905015505 66 300 3.0 4.0 0.00 0.00 0.00 64 1014.2
20260905015405 66 301 3.0 4.0 0.00 0.00 0.00 64 1014.2
20260905015307 66 309 3.0 4.0 0.00 0.00 0.00 64 1014.2
20260905015205 66 281 3.0 4.0 0.00 0.00 0.00 64 1014.2
20260905014904 66 326 3.0 4.0 0.00 0.00 0.00 64 1014.2
20260905014804 66 318 1.0 4.0 0.00 0.00 0.00 64 1014.2
20260905014707 66 345 1.0 4.0 0.00 0.00 0.00 64 1014.2
20260905014605 66 265 4.0 4.0 0.00 0.00 0.00 64 1014.2
20260905014504 66 225 1.0 3.0 0.00 0.00 0.00 64 1014.2
20260905014407 66 225 1.0 3.0 0.00 0.00 0.00 64 1014.2
20260905014205 66 299 2.0 3.0 0.00 0.00 0.00 64 1014.1
20260905014107 66 355 1.0 3.0 0.00 0.00 0.00 64 1014.2
20260905014005 66 355 3.0 3.0 0.00 0.00 0.00 63 1014.2
20260905013904 66 233 0.0 2.0 0.00 0.00 0.00 62 1014.2
20260905013807 66 233 0.0 2.0 0.00 0.00 0.00 62 1014.1
20260905013705 66 233 0.0 2.0 0.00 0.00 0.00 61 1014.1
20260905013605 66 233 0.0 2.0 0.00 0.00 0.00 62 1014.2
20260905013509 67 233 0.0 3.0 0.00 0.00 0.00 61 1014.2
20260905013404 67 233 0.0 3.0 0.00 0.00 0.00 61 1014.2
20260905013305 67 233 2.0 3.0 0.00 0.00 0.00 61 1014.2
20260905013208 67 233 1.0 5.0 0.00 0.00 0.00 61 1014.1
20260905013006 67 233 0.0 5.0 0.00 0.00 0.00 61 1014.1
20260905012907 67 233 0.0 5.0 0.00 0.00 0.00 61 1014.1
20260905012705 67 233 1.0 5.0 0.00 0.00 0.00 60 1014.1
20260905012607 67 233 0.0 5.0 0.00 0.00 0.00 60 1014.1
20260905012504 67 233 3.0 5.0 0.00 0.00 0.00 60 1014.1
20260905012308 67 267 3.0 5.0 0.00 0.00 0.00 60 1014.2
20260905012203 67 228 5.0 5.0 0.00 0.00 0.00 60 1014.2
20260905012009 68 265 0.0 4.0 0.00 0.00 0.00 60 1014.2
20260905011905 68 265 2.0 4.0 0.00 0.00 0.00 59 1014.2
20260905011803 68 265 0.0 4.0 0.00 0.00 0.00 58 1014.2
20260905011707 68 265 1.0 4.0 0.00 0.00 0.00 58 1014.2
20260905011605 68 215 0.0 4.0 0.00 0.00 0.00 59 1014.2
20260905011407 68 215 0.0 4.0 0.00 0.00 0.00 57 1014.1
20260905011305 68 215 1.0 4.0 0.00 0.00 0.00 58 1014.1
20260905011107 69 215 0.0 4.0 0.00 0.00 0.00 57 1014.1
20260905010904 69 184 0.0 3.0 0.00 0.00 0.00 56 1014.1
20260905010807 69 184 3.0 3.0 0.00 0.00 0.00 56 1014.1
20260905010705 70 184 2.0 2.0 0.00 0.00 0.00 55 1014.1
20260905010604 70 207 0.0 2.0 0.00 0.00 0.00 55 1014.1
20260905010508 70 207 1.0 2.0 0.00 0.00 0.00 54 1014.1
20260905010405 70 207 2.0 2.0 0.00 0.00 0.00 54 1014.1
20260905010305 70 207 0.0 2.0 0.00 0.00 0.00 54 1014.1
20260905010208 71 207 1.0 2.0 0.00 0.00 0.00 53 1014.1
20260905010105 71 207 1.0 2.0 0.00 0.00 0.00 52 1014.1
20260905010008 71 207 0.0 2.0 0.00 0.00 0.00 51 1014.1
20260905005906 71 207 0.0 2.0 0.00 0.00 0.00 51 1014.1
20260905005804 72 207 0.0 3.0 0.00 0.00 0.00 51 1014.1
20260905005705 72 207 1.0 3.0 0.00 0.00 0.00 50 1014.1
20260905005607 72 207 0.0 3.0 0.00 0.00 0.00 50 1014.1
20260905005505 72 207 0.0 3.0 0.00 0.00 0.00 50 1014.1
20260905005404 72 207 1.0 3.0 0.00 0.00 0.00 50 1014.1
20260905005307 73 207 0.0 3.0 0.00 0.00 0.00 48 1014.1
20260905005205 73 207 1.0 3.0 0.00 0.00 0.00 48 1014.1
20260905005105 73 207 1.0 3.0 0.00 0.00 0.00 48 1014.1
20260905005008 73 207 2.0 3.0 0.00 0.00 0.00 48 1014.1
20260905004903 73 207 1.0 3.0 0.00 0.00 0.00 48 1014.1
20260905004805 74 207 2.0 4.0 0.00 0.00 0.00 47 1014.1
20260905004706 74 269 1.0 4.0 0.00 0.00 0.00 47 1014.1
20260905004505 75 269 2.0 4.0 0.00 0.00 0.00 47 1014.1
20260905004407 75 269 2.0 4.0 0.00 0.00 0.00 46 1014.1
20260905004304 75 269 1.0 4.0 0.00 0.00 0.00 46 1014.1
20260905004205 75 269 0.0 4.0 0.00 0.00 0.00 46 1014.2
20260905004108 75 269 0.0 4.0 0.00 0.00 0.00 45 1014.2
20260905004005 75 275 2.0 4.0 0.00 0.00 0.00 43 1014.2
20260905003904 75 294 3.0 4.0 0.00 0.00 0.00 44 1014.2
20260905003806 76 296 3.0 5.0 0.00 0.00 0.00 44 1014.2
20260905003704 76 296 3.0 5.0 0.00 0.00 0.00 44 1014.2
20260905003605 76 304 3.0 5.0 0.00 0.00 0.00 44 1014.2
20260905003507 76 311 3.0 5.0 0.00 0.00 0.00 43 1014.2
20260905003207 77 227 2.0 5.0 0.00 0.00 0.00 43 1014.3
20260905003105 78 331 1.0 6.0 0.00 0.00 0.00 43 1014.2
20260905003005 78 330 2.0 6.0 0.00 0.00 0.00 43 1014.2
20260905002907 78 340 1.0 6.0 0.00 0.00 0.00 41 1014.2
20260905002805 79 336 3.0 7.0 0.00 0.00 0.00 41 1014.2
20260905002705 79 342 5.0 8.0 0.00 0.00 0.00 40 1014.3
20260905002504 79 322 3.0 9.0 0.00 0.00 0.00 41 1014.3
20260905002405 79 325 2.0 9.0 0.00 0.00 0.00 39 1014.3
20260905002307 79 214 3.0 10.0 0.00 0.00 0.00 38 1014.3
20260905002205 79 215 3.0 10.0 0.00 0.00 0.00 38 1014.2
20260905002104 79 202 5.0 11.0 0.00 0.00 0.00 38 1014.2
20260905001905 79 204 4.0 11.0 0.00 0.00 0.00 38 1014.3
20260905001804 79 215 4.0 11.0 0.00 0.00 0.00 38 1014.3
20260905001708 79 200 7.0 11.0 0.00 0.00 0.00 38 1014.3
20260905001605 79 186 9.0 11.0 0.00 0.00 0.00 38 1014.2
20260905001505 79 184 6.0 11.0 0.00 0.00 0.00 38 1014.3
20260905001407 79 185 8.0 11.0 0.00 0.00 0.00 38 1014.3
20260905001305 79 190 6.0 11.0 0.00 0.00 0.00 38 1014.3
20260905001205 80 188 6.0 11.0 0.00 0.00 0.00 38 1014.3
20260905001005 80 194 7.0 10.0 0.00 0.00 0.00 38 1014.3
20260905000905 80 190 7.0 10.0 0.00 0.00 0.00 38 1014.3
20260905000807 80 179 9.0 10.0 0.00 0.00 0.00 38 1014.3
20260905000704 80 186 8.0 10.0 0.00 0.00 0.00 37 1014.4
20260905000604 80 191 6.0 10.0 0.00 0.00 0.00 37 1014.4
20260905000506 80 187 8.0 10.0 0.00 0.00 0.00 37 1014.3
20260905000404 80 192 9.0 10.0 0.00 0.00 0.00 38 1014.4
20260905000305 80 193 7.0 10.0 0.00 0.00 0.00 38 1014.4
20260905000206 80 192 8.0 10.0 0.00 0.00 0.00 37 1014.4
20260905000132 80 211 8.0 10.0 0.00 0.00 0.00 38 1014.4
20260904235807 80 201 7.0 10.0 0.00 0.00 0.00 38 1014.4
20260904235705 80 207 7.0 11.0 0.00 0.00 0.00 38 1014.4
20260904235606 80 199 8.0 11.0 0.00 0.00 0.00 38 1014.4
20260904235526 80 208 7.0 11.0 0.00 0.00 0.00 37 1014.4
20260904235405 80 190 7.0 11.0 0.00 0.00 0.00 37 1014.5
20260904235207 80 197 7.0 15.0 0.00 0.00 0.00 37 1014.5
20260904235105 80 188 7.0 15.0 0.00 0.00 0.00 38 1014.5
20260904235009 80 212 9.0 15.0 0.00 0.00 0.00 37 1014.5
20260904234707 80 175 8.0 15.0 0.00 0.00 0.00 38 1014.5
20260904234607 80 181 11.0 15.0 0.00 0.00 0.00 38 1014.5
20260904234506 80 199 7.0 15.0 0.00 0.00 0.00 38 1014.5
20260904234407 80 187 9.0 15.0 0.00 0.00 0.00 38 1014.5
20260904233905 79 199 10.0 15.0 0.00 0.00 0.00 39 1014.6
20260904233807 78 188 12.0 15.0 0.00 0.00 0.00 40 1014.5
20260904233708 78 180 12.0 15.0 0.00 0.00 0.00 41 1014.6
20260904233605 78 183 12.0 15.0 0.00 0.00 0.00 41 1014.6
20260904233507 77 190 11.0 12.0 0.00 0.00 0.00 41 1014.6
20260904233408 77 193 8.0 11.0 0.00 0.00 0.00 42 1014.6
20260904233206 77 192 9.0 11.0 0.00 0.00 0.00 42 1014.6
20260904233107 77 188 10.0 11.0 0.00 0.00 0.00 43 1014.7
20260904233007 77 185 8.0 9.0 0.00 0.00 0.00 43 1014.7
20260904232906 77 194 6.0 8.0 0.00 0.00 0.00 43 1014.7
20260904232807 77 209 7.0 8.0 0.00 0.00 0.00 43 1014.8
20260904232705 77 196 6.0 7.0 0.00 0.00 0.00 43 1014.8
20260904232606 77 216 5.0 7.0 0.00 0.00 0.00 43 1014.8
20260904232507 77 191 6.0 7.0 0.00 0.00 0.00 42 1014.8
20260904232405 77 206 6.0 7.0 0.00 0.00 0.00 43 1014.8
20260904232307 77 209 5.0 7.0 0.00 0.00 0.00 42 1014.7
20260904232207 77 213 5.0 7.0 0.00 0.00 0.00 42 1014.8
20260904232104 77 220 6.0 7.0 0.00 0.00 0.00 42 1014.8
20260904232007 78 221 6.0 7.0 0.00 0.00 0.00 42 1014.8
20260904231908 78 205 6.0 7.0 0.00 0.00 0.00 42 1014.7
20260904231706 78 209 5.0 7.0 0.00 0.00 0.00 42 1014.8
20260904231607 78 209 5.0 7.0 0.00 0.00 0.00 42 1014.8
20260904231505 78 222 4.0 7.0 0.00 0.00 0.00 41 1014.8
20260904231406 78 231 6.0 7.0 0.00 0.00 0.00 41 1014.8
20260904231205 79 225 5.0 9.0 0.00 0.00 0.00 41 1014.8
20260904231106 79 240 4.0 9.0 0.00 0.00 0.00 41 1014.8
20260904231008 79 241 4.0 9.0 0.00 0.00 0.00 40 1014.8
20260904230905 79 213 4.0 9.0 0.00 0.00 0.00 41 1014.9
20260904230707 80 259 2.0 9.0 0.00 0.00 0.00 39 1014.8
20260904230605 80 248 4.0 9.0 0.00 0.00 0.00 39 1014.8
20260904230508 80 261 2.0 9.0 0.00 0.00 0.00 39 1014.8
20260904230407 80 264 2.0 9.0 0.00 0.00 0.00 39 1014.9
20260904230304 81 236 5.0 10.0 0.00 0.00 0.00 39 1014.8
20260904230107 81 234 4.0 10.0 0.00 0.00 0.00 38 1014.8
20260904225907 81 252 3.0 10.0 0.00 0.00 0.00 38 1014.8
20260904225807 81 223 6.0 11.0 0.00 0.00 0.00 38 1014.8
20260904225606 81 221 7.0 11.0 0.00 0.00 0.00 37 1014.8
20260904225405 82 221 8.0 11.0 0.00 0.00 0.00 37 1014.8
20260904225207 82 211 7.0 14.0 0.00 0.00 0.00 37 1014.8
20260904224907 82 221 7.0 16.0 0.00 0.00 0.00 37 1014.8
20260904224803 82 212 7.0 16.0 0.00 0.00 0.00 36 1014.8
20260904224707 82 234 7.0 16.0 0.00 0.00 0.00 36 1014.8
20260904224607 83 218 8.0 16.0 0.00 0.00 0.00 36 1014.7
20260904224506 83 198 10.0 16.0 0.00 0.00 0.00 36 1014.7
20260904224407 83 196 7.0 16.0 0.00 0.00 0.00 36 1014.7
20260904224308 83 167 9.0 16.0 0.00 0.00 0.00 36 1014.8
20260904224205 83 204 10.0 16.0 0.00 0.00 0.00 36 1014.7
20260904224106 83 213 14.0 16.0 0.00 0.00 0.00 36 1014.8
20260904224008 83 181 13.0 15.0 0.00 0.00 0.00 36 1014.7
20260904223905 83 195 9.0 15.0 0.00 0.00 0.00 36 1014.7
20260904223806 82 211 12.0 15.0 0.00 0.00 0.00 36 1014.7
20260904223707 82 229 12.0 15.0 0.00 0.00 0.00 36 1014.8
20260904223605 82 211 10.0 15.0 0.00 0.00 0.00 36 1014.8
20260904223507 82 191 16.0 16.0 0.00 0.00 0.00 36 1014.8
20260904223407 82 223 11.0 14.0 0.00 0.00 0.00 36 1014.7
20260904223305 82 192 10.0 14.0 0.00 0.00 0.00 37 1014.8
20260904223206 82 208 9.0 15.0 0.00 0.00 0.00 36 1014.8
20260904223107 81 198 10.0 15.0 0.00 0.00 0.00 37 1014.8
20260904223005 81 200 9.0 15.0 0.00 0.00 0.00 37 1014.8
20260904222906 81 227 10.0 15.0 0.00 0.00 0.00 37 1014.8
20260904222705 81 211 9.0 15.0 0.00 0.00 0.00 37 1014.9
20260904222606 81 202 7.0 15.0 0.00 0.00 0.00 37 1014.9
20260904222405 81 200 8.0 15.0 0.00 0.00 0.00 37 1014.9
20260904222306 81 220 9.0 15.0 0.00 0.00 0.00 37 1014.9
20260904222207 80 196 11.0 16.0 0.00 0.00 0.00 38 1014.9
20260904222105 80 222 10.0 13.0 0.00 0.00 0.00 38 1014.9
20260904222007 80 223 5.0 13.0 0.00 0.00 0.00 39 1014.9
20260904221907 80 211 10.0 13.0 0.00 0.00 0.00 39 1014.9
20260904221805 80 227 10.0 13.0 0.00 0.00 0.00 39 1014.9
20260904221706 79 209 10.0 13.0 0.00 0.00 0.00 40 1014.8
20260904221406 78 242 9.0 13.0 0.00 0.00 0.00 42 1014.9
20260904221307 78 217 9.0 13.0 0.00 0.00 0.00 42 1014.9
20260904221205 77 232 7.0 13.0 0.00 0.00 0.00 43 1014.9
20260904221107 77 232 7.0 13.0 0.00 0.00 0.00 43 1014.8
20260904221008 76 199 10.0 12.0 0.00 0.00 0.00 45 1014.9
20260904220905 75 223 9.0 12.0 0.00 0.00 0.00 46 1014.9
20260904220807 74 216 11.0 12.0 0.00 0.00 0.00 47 1014.8
20260904220707 73 236 12.0 12.0 0.00 0.00 0.00 49 1014.8
20260904220605 72 223 8.0 12.0 0.00 0.00 0.00 50 1014.8
20260904220407 71 246 6.0 12.0 0.00 0.00 0.00 54 1014.9
20260904220305 70 213 7.0 12.0 0.00 0.00 0.00 57 1014.9
20260904220206 69 215 8.0 12.0 0.00 0.00 0.00 59 1014.9
20260904220138 68 221 8.0 12.0 0.00 0.00 0.00 59 1014.9
20260904220031 68 219 12.0 12.0 0.00 0.00 0.00 63 1014.9
20260904215908 67 206 7.0 10.0 0.00 0.00 0.00 64 1014.9
20260904215805 66 234 6.0 10.0 0.00 0.00 0.00 67 1014.9
20260904215505 66 231 8.0 10.0 0.00 0.00 0.00 79 1014.8
20260904215108 66 180 5.0 6.0 0.00 0.00 0.00 82 1014.9
20260904215010 66 221 4.0 6.0 0.00 0.00 0.00 82 1014.9
20260904214906 66 195 2.0 5.0 0.00 0.00 0.00 82 1014.9
20260904214808 66 205 4.0 5.0 0.00 0.00 0.00 82 1014.9
20260904214708 66 202 2.0 5.0 0.00 0.00 0.00 82 1014.9
20260904214605 66 162 2.0 5.0 0.00 0.00 0.00 82 1014.9
20260904214508 66 190 2.0 5.0 0.00 0.00 0.00 83 1014.9
20260904214409 66 201 2.0 4.0 0.00 0.00 0.00 83 1014.9
20260904214306 66 138 3.0 4.0 0.00 0.00 0.00 83 1014.8
20260904214109 66 132 3.0 6.0 0.00 0.00 0.00 83 1014.9
20260904213908 66 140 2.0 6.0 0.00 0.00 0.00 84 1014.8
20260904213807 66 140 3.0 6.0 0.00 0.00 0.00 84 1014.8
20260904213705 66 131 2.0 6.0 0.00 0.00 0.00 84 1014.8
20260904213608 66 130 4.0 6.0 0.00 0.00 0.00 84 1014.8
20260904213508 66 103 3.0 6.0 0.00 0.00 0.00 84 1014.9
20260904213405 66 103 1.0 6.0 0.00 0.00 0.00 84 1014.8
20260904213208 66 117 4.0 5.0 0.00 0.00 0.00 84 1014.8
20260904213009 66 150 2.0 3.0 0.00 0.00 0.00 84 1014.8
20260904212907 66 150 2.0 4.0 0.00 0.00 0.00 84 1014.8
20260904212806 66 150 2.0 4.0 0.00 0.00 0.00 83 1014.8
20260904212708 66 150 1.0 4.0 0.00 0.00 0.00 83 1014.8
20260904212506 66 313 0.0 4.0 0.00 0.00 0.00 83 1014.9
20260904212408 66 313 0.0 5.0 0.00 0.00 0.00 83 1014.9
20260904212306 66 313 0.0 5.0 0.00 0.00 0.00 83 1014.9
20260904212206 66 313 0.0 5.0 0.00 0.00 0.00 84 1014.9
20260904212109 66 313 1.0 5.0 0.00 0.00 0.00 84 1014.9
20260904212008 66 313 1.0 5.0 0.00 0.00 0.00 84 1014.9
20260904211809 66 315 4.0 6.0 0.00 0.00 0.00 83 1014.9
20260904211708 66 142 1.0 6.0 0.00 0.00 0.00 83 1014.9
20260904211604 66 142 0.0 6.0 0.00 0.00 0.00 84 1014.8
20260904211509 66 142 1.0 6.0 0.00 0.00 0.00 84 1014.8
20260904211407 66 121 3.0 6.0 0.00 0.00 0.00 84 1014.8
20260904211305 66 135 2.0 6.0 0.00 0.00 0.00 84 1014.8
20260904211209 66 117 4.0 6.0 0.00 0.00 0.00 84 1014.9
20260904211006 66 157 2.0 6.0 0.00 0.00 0.00 84 1014.9
20260904210808 66 105 2.0 4.0 0.00 0.00 0.00 84 1014.8
20260904210706 66 79 2.0 4.0 0.00 0.00 0.00 84 1014.9
20260904210608 66 212 0.0 4.0 0.00 0.00 0.00 83 1014.9
20260904210508 66 213 0.0 4.0 0.00 0.00 0.00 83 1014.9
20260904210405 66 209 3.0 3.0 0.00 0.00 0.00 83 1014.9
20260904210309 66 269 0.0 3.0 0.00 0.00 0.00 83 1015.0
20260904210207 66 269 0.0 3.0 0.00 0.00 0.00 83 1014.9
20260904205907 67 269 1.0 5.0 0.00 0.00 0.00 83 1015.0
20260904205805 67 269 1.0 5.0 0.00 0.00 0.00 83 1015.0
20260904205708 67 269 0.0 5.0 0.00 0.00 0.00 83 1014.9
20260904205607 67 269 0.0 5.0 0.00 0.00 0.00 83 1014.9
20260904205308 67 248 0.0 5.0 0.00 0.00 0.00 83 1015.0
20260904205205 67 248 1.0 5.0 0.00 0.00 0.00 82 1015.0
20260904205009 67 229 0.0 5.0 0.00 0.00 0.00 83 1014.9
20260904204905 67 141 3.0 5.0 0.00 0.00 0.00 83 1015.0
20260904204808 67 122 2.0 4.0 0.00 0.00 0.00 82 1014.9
20260904204708 67 300 1.0 4.0 0.00 0.00 0.00 82 1014.9
20260904204606 67 300 1.0 4.0 0.00 0.00 0.00 82 1015.0
20260904204508 67 300 2.0 4.0 0.00 0.00 0.00 82 1015.1
20260904204407 67 269 4.0 4.0 0.00 0.00 0.00 82 1015.0
20260904204207 67 150 1.0 3.0 0.00 0.00 0.00 82 1015.0
20260904204111 67 250 0.0 3.0 0.00 0.00 0.00 81 1015.0
20260904204006 67 250 0.0 3.0 0.00 0.00 0.00 81 1015.0
20260904203907 68 257 2.0 3.0 0.00 0.00 0.00 81 1015.0
20260904203807 68 257 1.0 3.0 0.00 0.00 0.00 81 1015.0
20260904203608 68 257 0.0 4.0 0.00 0.00 0.00 80 1015.0
20260904203508 68 257 1.0 4.0 0.00 0.00 0.00 80 1015.0
20260904203408 68 257 2.0 4.0 0.00 0.00 0.00 80 1015.0
20260904203308 68 211 2.0 4.0 0.00 0.00 0.00 80 1015.0
20260904203104 68 211 0.0 4.0 0.00 0.00 0.00 80 1015.0
20260904203008 68 211 3.0 4.0 0.00 0.00 0.00 80 1015.0
20260904202909 68 211 1.0 4.0 0.00 0.00 0.00 80 1015.0
20260904202805 69 211 1.0 4.0 0.00 0.00 0.00 80 1015.1
20260904202708 69 211 2.0 4.0 0.00 0.00 0.00 80 1015.0
20260904202611 69 211 4.0 4.0 0.00 0.00 0.00 80 1015.0
20260904202505 69 211 2.0 4.0 0.00 0.00 0.00 80 1015.0
20260904202408 69 211 1.0 4.0 0.00 0.00 0.00 80 1015.0
20260904202307 69 225 2.0 4.0 0.00 0.00 0.00 79 1015.0
20260904202206 69 225 4.0 4.0 0.00 0.00 0.00 79 1015.0
20260904202107 69 132 1.0 3.0 0.00 0.00 0.00 79 1015.0
20260904202008 69 129 2.0 3.0 0.00 0.00 0.00 78 1015.0
20260904201906 69 229 1.0 3.0 0.00 0.00 0.00 78 1015.1
20260904201809 69 229 3.0 3.0 0.00 0.00 0.00 77 1015.1
20260904201606 69 229 3.0 3.0 0.00 0.00 0.00 78 1015.1
20260904201508 70 146 2.0 3.0 0.00 0.00 0.00 77 1015.2
20260904201305 70 146 0.0 3.0 0.00 0.00 0.00 78 1015.2
20260904201208 70 146 1.0 3.0 0.00 0.00 0.00 77 1015.2
20260904201109 70 231 1.0 3.0 0.00 0.00 0.00 77 1015.2
20260904201005 70 231 2.0 3.0 0.00 0.00 0.00 77 1015.2
20260904200807 70 141 0.0 3.0 0.00 0.00 0.00 77 1015.2
20260904200704 70 142 1.0 3.0 0.00 0.00 0.00 77 1015.2
20260904200607 70 141 1.0 4.0 0.00 0.00 0.00 77 1015.2
20260904200406 71 141 1.0 4.0 0.00 0.00 0.00 77 1015.3
20260904200308 71 142 2.0 4.0 0.00 0.00 0.00 78 1015.3
20260904200208 71 141 0.0 4.0 0.00 0.00 0.00 78 1015.2
20260904200012 71 141 3.0 4.0 0.00 0.00 0.00 77 1015.3
20260904195907 71 142 2.0 4.0 0.00 0.00 0.00 77 1015.2
20260904195804 71 142 2.0 4.0 0.00 0.00 0.00 77 1015.2
20260904195709 71 142 1.0 4.0 0.00 0.00 0.00 77 1015.2
20260904195409 71 184 3.0 4.0 0.00 0.00 0.00 76 1015.2
20260904195307 71 186 4.0 4.0 0.00 0.00 0.00 76 1015.2
20260904195205 71 207 2.0 4.0 0.00 0.00 0.00 76 1015.2
20260904195109 71 208 1.0 4.0 0.00 0.00 0.00 76 1015.2
20260904195008 71 185 1.0 4.0 0.00 0.00 0.00 77 1015.3
20260904194905 71 185 1.0 4.0 0.00 0.00 0.00 76 1015.2
20260904194809 71 185 2.0 4.0 0.00 0.00 0.00 76 1015.2
20260904194707 71 185 1.0 4.0 0.00 0.00 0.00 76 1015.2
20260904194606 71 185 0.0 4.0 0.00 0.00 0.00 76 1015.3
20260904194508 72 185 3.0 4.0 0.00 0.00 0.00 76 1015.3
20260904194408 72 148 2.0 4.0 0.00 0.00 0.00 77 1015.2
20260904194305 72 148 2.0 4.0 0.00 0.00 0.00 77 1015.2
20260904194207 72 148 2.0 4.0 0.00 0.00 0.00 76 1015.2
20260904194107 72 148 1.0 5.0 0.00 0.00 0.00 76 1015.2
20260904193908 72 148 2.0 5.0 0.00 0.00 0.00 76 1015.2
20260904193705 72 148 3.0 5.0 0.00 0.00 0.00 76 1015.2
20260904193609 72 180 2.0 5.0 0.00 0.00 0.00 75 1015.2
20260904193510 72 180 1.0 5.0 0.00 0.00 0.00 75 1015.2
20260904193405 72 180 2.0 5.0 0.00 0.00 0.00 75 1015.2
20260904193207 72 182 1.0 5.0 0.00 0.00 0.00 75 1015.3
20260904193010 72 138 0.0 4.0 0.00 0.00 0.00 75 1015.3
20260904192907 72 142 3.0 4.0 0.00 0.00 0.00 75 1015.3
20260904192805 72 136 4.0 4.0 0.00 0.00 0.00 75 1015.3
20260904192708 72 138 4.0 4.0 0.00 0.00 0.00 75 1015.3
20260904192607 72 138 4.0 4.0 0.00 0.00 0.00 75 1015.3
20260904192506 72 127 4.0 4.0 0.00 0.00 0.00 75 1015.3
20260904192409 72 134 4.0 4.0 0.00 0.00 0.00 75 1015.2
20260904192307 72 142 4.0 5.0 0.00 0.00 0.00 75 1015.3
20260904192205 72 142 3.0 5.0 0.00 0.00 0.00 75 1015.3
20260904192107 72 142 2.0 5.0 0.00 0.00 0.00 75 1015.3
20260904192008 72 142 1.0 5.0 0.00 0.00 0.00 75 1015.4
20260904191905 72 142 1.0 5.0 0.00 0.00 0.00 74 1015.4
20260904191808 72 142 1.0 5.0 0.00 0.00 0.00 74 1015.4
20260904191605 73 142 1.0 5.0 0.00 0.00 0.00 74 1015.3
20260904191507 73 142 1.0 5.0 0.00 0.00 0.00 74 1015.3
20260904191408 73 142 2.0 5.0 0.00 0.00 0.00 73 1015.3
20260904191305 73 142 5.0 5.0 0.00 0.00 0.00 73 1015.3
20260904191208 73 142 4.0 5.0 0.00 0.00 0.00 73 1015.3
20260904191107 73 142 1.0 5.0 0.00 0.00 0.00 73 1015.3
20260904191006 73 142 2.0 5.0 0.00 0.00 0.00 73 1015.3
20260904190909 73 142 5.0 5.0 0.00 0.00 0.00 73 1015.3
20260904190706 73 106 3.0 5.0 0.00 0.00 0.00 72 1015.4
20260904190607 73 106 1.0 5.0 0.00 0.00 0.00 72 1015.3
20260904190508 73 106 1.0 5.0 0.00 0.00 0.00 72 1015.4
20260904190404 73 106 2.0 5.0 0.00 0.00 0.00 72 1015.4
20260904190307 74 106 2.0 5.0 0.00 0.00 0.00 72 1015.4
20260904190104 74 106 1.0 5.0 0.00 0.00 0.00 71 1015.4
20260904190012 74 106 2.0 5.0 0.00 0.00 0.00 71 1015.4
20260904185907 74 106 2.0 5.0 0.00 0.00 0.00 71 1015.3
20260904185805 74 106 3.0 5.0 0.00 0.00 0.00 71 1015.3
20260904185708 74 106 3.0 4.0 0.00 0.00 0.00 71 1015.3
20260904185608 74 106 4.0 4.0 0.00 0.00 0.00 71 1015.2
20260904185505 74 106 3.0 4.0 0.00 0.00 0.00 70 1015.3
20260904185408 74 106 2.0 3.0 0.00 0.00 0.00 70 1015.2
20260904185307 74 106 1.0 3.0 0.00 0.00 0.00 70 1015.3
20260904185206 74 106 1.0 3.0 0.00 0.00 0.00 71 1015.2
20260904185108 75 106 1.0 3.0 0.00 0.00 0.00 70 1015.3
20260904184905 75 106 1.0 2.0 0.00 0.00 0.00 70 1015.3
20260904184808 75 106 0.0 2.0 0.00 0.00 0.00 70 1015.2
20260904184707 75 106 0.0 2.0 0.00 0.00 0.00 70 1015.2
20260904184605 75 106 0.0 2.0 0.00 0.00 0.00 70 1015.3
20260904184509 75 106 1.0 3.0 0.00 0.00 0.00 69 1015.2
20260904184408 75 106 1.0 3.0 0.00 0.00 0.00 69 1015.2
20260904184306 75 106 1.0 3.0 0.00 0.00 0.00 69 1015.2
20260904184208 76 106 1.0 4.0 0.00 0.00 0.00 69 1015.2
20260904184108 76 106 1.0 4.0 0.00 0.00 0.00 69 1015.2
20260904184006 76 106 1.0 4.0 0.00 0.00 0.00 69 1015.2
20260904183908 76 106 1.0 4.0 0.00 0.00 0.00 69 1015.2
20260904183808 76 106 1.0 4.0 0.00 0.00 0.00 68 1015.2
20260904183705 76 106 0.0 5.0 0.00 0.00 0.00 68 1015.2
20260904183608 76 106 1.0 5.0 0.00 0.00 0.00 68 1015.2
20260904183507 77 106 2.0 5.0 0.00 0.00 0.00 67 1015.2
20260904183404 77 106 3.0 5.0 0.00 0.00 0.00 67 1015.2
20260904183308 77 106 3.0 5.0 0.00 0.00 0.00 67 1015.1
20260904183209 77 106 3.0 5.0 0.00 0.00 0.00 66 1015.1
20260904183105 77 106 3.0 5.0 0.00 0.00 0.00 66 1015.1
20260904183010 77 106 4.0 5.0 0.00 0.00 0.00 66 1015.1
20260904182907 77 106 4.0 5.0 0.00 0.00 0.00 66 1015.0
20260904182806 77 106 3.0 5.0 0.00 0.00 0.00 66 1015.0
20260904182607 78 106 2.0 5.0 0.00 0.00 0.00 65 1015.0
20260904182506 78 106 3.0 5.0 0.00 0.00 0.00 65 1015.0
20260904182408 78 106 4.0 5.0 0.00 0.00 0.00 65 1015.0
20260904182307 78 106 3.0 5.0 0.00 0.00 0.00 65 1015.0
20260904182108 78 106 4.0 5.0 0.00 0.00 0.00 65 1015.0
20260904182009 78 106 4.0 5.0 0.00 0.00 0.00 64 1015.0
20260904181905 78 106 3.0 5.0 0.00 0.00 0.00 64 1015.0
20260904181808 78 106 4.0 5.0 0.00 0.00 0.00 64 1015.0
20260904181707 78 106 3.0 5.0 0.00 0.00 0.00 64 1015.0
20260904181605 79 106 4.0 5.0 0.00 0.00 0.00 64 1015.0
20260904181508 79 106 3.0 5.0 0.00 0.00 0.00 64 1015.0
20260904181407 79 106 2.0 5.0 0.00 0.00 0.00 63 1015.0
20260904181305 79 106 2.0 5.0 0.00 0.00 0.00 63 1015.0
20260904181108 79 106 3.0 7.0 0.00 0.00 0.00 63 1014.9
20260904181005 79 106 3.0 7.0 0.00 0.00 0.00 62 1014.9
20260904180908 80 106 5.0 7.0 0.00 0.00 0.00 62 1014.9
20260904180807 80 106 3.0 7.0 0.00 0.00 0.00 62 1014.9
20260904180705 80 106 3.0 7.0 0.00 0.00 0.00 62 1014.9
20260904180404 80 106 2.0 7.0 0.00 0.00 0.00 61 1014.8
20260904180204 81 87 3.0 7.0 0.00 0.00 0.00 61 1014.8
20260904180121 81 89 7.0 7.0 0.00 0.00 0.00 60 1014.9
20260904180013 81 89 6.0 7.0 0.00 0.00 0.00 60 1014.9
20260904175905 81 76 4.0 7.0 0.00 0.00 0.00 60 1014.9
20260904175807 81 78 4.0 5.0 0.00 0.00 0.00 60 1014.9
20260904175606 81 78 5.0 7.0 0.00 0.00 0.00 59 1014.9
20260904175507 81 78 3.0 8.0 0.00 0.00 0.00 59 1014.8
20260904175408 81 78 4.0 8.0 0.00 0.00 0.00 59 1014.9
20260904175306 82 78 3.0 8.0 0.00 0.00 0.00 59 1014.9
20260904175208 82 78 3.0 8.0 0.00 0.00 0.00 59 1014.8
20260904175108 82 78 3.0 8.0 0.00 0.00 0.00 59 1014.8
20260904174908 82 78 3.0 8.0 0.00 0.00 0.00 59 1014.8
20260904174808 82 78 3.0 8.0 0.00 0.00 0.00 59 1014.8
20260904174706 82 82 5.0 8.0 0.00 0.00 0.00 59 1014.8
20260904174607 82 88 3.0 8.0 0.00 0.00 0.00 58 1014.8
20260904174508 82 95 7.0 8.0 0.00 0.00 0.00 58 1014.8
20260904174405 82 94 6.0 8.0 0.00 0.00 0.00 58 1014.8
20260904174308 83 99 6.0 8.0 0.00 0.00 0.00 58 1014.8
20260904174208 83 82 6.0 8.0 0.00 0.00 0.00 58 1014.8
20260904174008 83 78 4.0 8.0 0.00 0.00 0.00 57 1014.9
20260904173908 83 87 7.0 7.0 0.00 0.00 0.00 57 1014.8
20260904173707 83 86 3.0 7.0 0.00 0.00 0.00 57 1014.9
20260904173607 84 65 4.0 8.0 0.00 0.00 0.00 56 1014.8
20260904173506 84 65 4.0 8.0 0.00 0.00 0.00 56 1014.9
20260904173407 84 65 4.0 8.0 0.00 0.00 0.00 56 1014.9
20260904173307 84 65 4.0 8.0 0.00 0.00 0.00 56 1014.9
20260904173205 84 65 7.0 9.0 0.00 0.00 0.00 56 1014.9
20260904173107 84 65 3.0 9.0 0.00 0.00 0.00 56 1014.9
20260904172905 84 71 3.0 9.0 0.00 0.00 0.00 55 1014.9
20260904172807 85 87 5.0 11.0 0.00 0.00 0.00 55 1015.0
20260904172708 85 77 5.0 11.0 0.00 0.00 0.00 55 1015.0
20260904172509 85 107 4.0 11.0 0.00 0.00 0.00 54 1014.9
20260904172408 85 92 5.0 11.0 0.00 0.00 0.00 54 1015.0
20260904172306 85 82 5.0 11.0 0.00 0.00 0.00 54 1015.0
20260904172207 85 90 7.0 11.0 0.00 0.00 0.00 53 1015.0
20260904172107 85 65 5.0 11.0 0.00 0.00 0.00 53 1015.0
20260904171808 85 87 8.0 11.0 0.00 0.00 0.00 53 1015.0
20260904171706 85 85 7.0 11.0 0.00 0.00 0.00 52 1015.0
20260904171607 86 74 7.0 13.0 0.00 0.00 0.00 52 1015.0
20260904171508 86 80 7.0 13.0 0.00 0.00 0.00 52 1015.0
20260904171306 86 88 8.0 13.0 0.00 0.00 0.00 52 1015.0
20260904171226 86 84 8.0 13.0 0.00 0.00 0.00 52 1015.0
20260904171106 86 80 9.0 13.0 0.00 0.00 0.00 52 1015.0
20260904171005 86 67 7.0 13.0 0.00 0.00 0.00 52 1014.9
20260904170907 86 71 4.0 13.0 0.00 0.00 0.00 52 1015.0
20260904170805 86 84 8.0 13.0 0.00 0.00 0.00 51 1015.0
20260904170706 86 82 9.0 13.0 0.00 0.00 0.00 51 1015.0
20260904170608 86 88 9.0 13.0 0.00 0.00 0.00 51 1015.0
20260904170404 87 98 8.0 11.0 0.00 0.00 0.00 51 1015.0
20260904170308 87 94 7.0 11.0 0.00 0.00 0.00 51 1015.0
20260904170206 87 79 8.0 11.0 0.00 0.00 0.00 50 1015.0
20260904170105 87 103 8.0 11.0 0.00 0.00 0.00 50 1015.0
20260904170012 87 103 4.0 11.0 0.00 0.00 0.00 50 1015.0
20260904165805 87 78 3.0 11.0 0.00 0.00 0.00 50 1015.0
20260904165606 87 92 9.0 11.0 0.00 0.00 0.00 50 1015.0
20260904165505 87 70 5.0 11.0 0.00 0.00 0.00 49 1015.1
20260904165409 87 83 8.0 11.0 0.00 0.00 0.00 50 1015.1
20260904165305 87 78 10.0 11.0 0.00 0.00 0.00 50 1015.1
20260904165205 88 107 9.0 12.0 0.00 0.00 0.00 49 1015.1
20260904165108 88 55 5.0 12.0 0.00 0.00 0.00 49 1015.1
20260904165007 88 74 10.0 12.0 0.00 0.00 0.00 49 1015.1
20260904164905 88 67 5.0 12.0 0.00 0.00 0.00 50 1015.1
20260904164807 88 78 9.0 12.0 0.00 0.00 0.00 49 1015.1
20260904164706 88 85 7.0 12.0 0.00 0.00 0.00 49 1015.1
20260904164605 88 82 7.0 12.0 0.00 0.00 0.00 49 1015.1
20260904164508 88 74 4.0 13.0 0.00 0.00 0.00 49 1015.0
20260904164404 88 74 8.0 13.0 0.00 0.00 0.00 49 1015.1
20260904164304 88 85 6.0 13.0 0.00 0.00 0.00 49 1015.0
20260904164208 88 83 9.0 13.0 0.00 0.00 0.00 49 1015.1
20260904164007 88 76 8.0 13.0 0.00 0.00 0.00 48 1015.1
20260904163907 88 71 10.0 13.0 0.00 0.00 0.00 48 1015.1
20260904163805 88 60 4.0 13.0 0.00 0.00 0.00 48 1015.1
20260904163706 88 46 7.0 13.0 0.00 0.00 0.00 48 1015.0
20260904163607 89 67 8.0 13.0 0.00 0.00 0.00 48 1015.1
20260904163504 89 53 8.0 13.0 0.00 0.00 0.00 48 1015.1
20260904163404 89 77 10.0 13.0 0.00 0.00 0.00 48 1015.1
20260904163308 89 76 10.0 13.0 0.00 0.00 0.00 48 1015.0
20260904163205 89 63 7.0 13.0 0.00 0.00 0.00 48 1015.1
20260904163104 89 49 9.0 13.0 0.00 0.00 0.00 48 1015.1
20260904163010 89 52 9.0 13.0 0.00 0.00 0.00 48 1015.1
20260904162905 89 56 6.0 13.0 0.00 0.00 0.00 47 1015.1
20260904162805 89 97 8.0 13.0 0.00 0.00 0.00 48 1015.1
20260904162707 89 59 10.0 13.0 0.00 0.00 0.00 47 1015.0
20260904162606 89 78 9.0 13.0 0.00 0.00 0.00 47 1015.0
20260904162505 89 57 7.0 13.0 0.00 0.00 0.00 47 1015.0
20260904162408 89 94 10.0 14.0 0.00 0.00 0.00 47 1015.0
20260904162306 89 71 11.0 14.0 0.00 0.00 0.00 47 1015.0
20260904162205 89 87 9.0 14.0 0.00 0.00 0.00 47 1015.0
20260904162108 89 90 8.0 15.0 0.00 0.00 0.00 47 1015.0
20260904162006 89 76 12.0 15.0 0.00 0.00 0.00 47 1014.9
20260904161904 90 111 10.0 15.0 0.00 0.00 0.00 47 1015.0
20260904161705 90 71 8.0 15.0 0.00 0.00 0.00 47 1015.0
20260904161507 90 84 8.0 15.0 0.00 0.00 0.00 47 1015.0
20260904161405 90 79 5.0 15.0 0.00 0.00 0.00 47 1015.0
20260904161305 90 85 11.0 15.0 0.00 0.00 0.00 47 1014.9
20260904161207 90 65 11.0 15.0 0.00 0.00 0.00 46 1015.0
20260904161105 90 70 9.0 16.0 0.00 0.00 0.00 46 1015.0
20260904161005 90 70 13.0 16.0 0.00 0.00 0.00 45 1015.0
20260904160908 90 77 12.0 15.0 0.00 0.00 0.00 45 1015.0
20260904160705 90 80 14.0 15.0 0.00 0.00 0.00 45 1015.0
20260904160608 90 83 8.0 15.0 0.00 0.00 0.00 44 1015.0
20260904160507 90 79 13.0 15.0 0.00 0.00 0.00 44 1015.0
20260904160406 90 54 12.0 15.0 0.00 0.00 0.00 44 1015.0
20260904160308 90 76 10.0 14.0 0.00 0.00 0.00 44 1015.1
20260904160205 90 64 12.0 14.0 0.00 0.00 0.00 44 1015.0
20260904160119 90 81 10.0 16.0 0.00 0.00 0.00 44 1015.1
20260904160012 90 74 12.0 16.0 0.00 0.00 0.00 44 1015.1
20260904155906 90 96 9.0 16.0 0.00 0.00 0.00 44 1015.1
20260904155707 90 91 9.0 16.0 0.00 0.00 0.00 44 1015.1
20260904155605 90 93 9.0 16.0 0.00 0.00 0.00 44 1015.1
20260904155504 90 92 10.0 16.0 0.00 0.00 0.00 44 1015.1
20260904155408 91 109 10.0 16.0 0.00 0.00 0.00 44 1015.1
20260904155307 91 88 6.0 16.0 0.00 0.00 0.00 43 1015.1
20260904155108 91 86 16.0 16.0 0.00 0.00 0.00 42 1015.2
20260904155006 91 92 14.0 14.0 0.00 0.00 0.00 42 1015.2
20260904154904 91 96 9.0 15.0 0.00 0.00 0.00 42 1015.2
20260904154807 91 96 7.0 15.0 0.00 0.00 0.00 44 1015.1
20260904154704 91 88 13.0 14.0 0.00 0.00 0.00 44 1015.2
20260904154605 91 90 11.0 13.0 0.00 0.00 0.00 43 1015.2
20260904154507 91 87 6.0 15.0 0.00 0.00 0.00 44 1015.2
20260904154406 91 71 12.0 15.0 0.00 0.00 0.00 44 1015.2
20260904154304 91 89 9.0 15.0 0.00 0.00 0.00 44 1015.2
20260904154208 91 77 13.0 15.0 0.00 0.00 0.00 43 1015.2
20260904154106 91 78 5.0 15.0 0.00 0.00 0.00 43 1015.2
20260904153908 91 95 11.0 15.0 0.00 0.00 0.00 43 1015.2
20260904153805 91 99 13.0 15.0 0.00 0.00 0.00 43 1015.3
20260904153705 91 74 11.0 15.0 0.00 0.00 0.00 43 1015.3
20260904153607 91 61 8.0 15.0 0.00 0.00 0.00 43 1015.2
20260904153507 91 76 13.0 16.0 0.00 0.00 0.00 43 1015.3
20260904153307 91 69 9.0 15.0 0.00 0.00 0.00 42 1015.2
20260904153205 91 46 8.0 15.0 0.00 0.00 0.00 42 1015.3
20260904153105 91 57 8.0 15.0 0.00 0.00 0.00 42 1015.3
20260904152905 91 48 10.0 17.0 0.00 0.00 0.00 43 1015.3
20260904152804 91 82 11.0 17.0 0.00 0.00 0.00 43 1015.3
20260904152707 91 83 9.0 17.0 0.00 0.00 0.00 42 1015.3
20260904152407 91 82 14.0 17.0 0.00 0.00 0.00 43 1015.3
20260904152306 91 48 7.0 17.0 0.00 0.00 0.00 43 1015.3
20260904152204 92 96 13.0 17.0 0.00 0.00 0.00 43 1015.3
20260904152108 92 61 10.0 17.0 0.00 0.00 0.00 42 1015.3
20260904151905 92 93 13.0 17.0 0.00 0.00 0.00 42 1015.3
20260904151808 92 65 9.0 16.0 0.00 0.00 0.00 43 1015.3
20260904151705 92 72 7.0 16.0 0.00 0.00 0.00 42 1015.3
20260904151605 92 80 10.0 16.0 0.00 0.00 0.00 42 1015.3
20260904151508 92 72 7.0 16.0 0.00 0.00 0.00 42 1015.3
20260904151405 92 59 5.0 16.0 0.00 0.00 0.00 42 1015.3
20260904151304 92 78 10.0 16.0 0.00 0.00 0.00 43 1015.3
20260904151208 92 72 14.0 16.0 0.00 0.00 0.00 44 1015.3
20260904151104 92 76 9.0 16.0 0.00 0.00 0.00 43 1015.3
20260904151005 92 80 9.0 16.0 0.00 0.00 0.00 43 1015.3
20260904150908 92 70 11.0 16.0 0.00 0.00 0.00 43 1015.3
20260904150804 92 67 14.0 16.0 0.00 0.00 0.00 43 1015.3
20260904150704 92 82 16.0 16.0 0.00 0.00 0.00 43 1015.3
20260904150506 92 80 11.0 17.0 0.00 0.00 0.00 45 1015.3
20260904150404 92 66 10.0 17.0 0.00 0.00 0.00 44 1015.3
20260904150308 92 74 14.0 17.0 0.00 0.00 0.00 44 1015.3
20260904150205 92 97 11.0 17.0 0.00 0.00 0.00 44 1015.3
20260904150106 92 80 17.0 17.0 0.00 0.00 0.00 42 1015.3
20260904150016 92 98 10.0 17.0 0.00 0.00 0.00 43 1015.3
20260904145708 92 102 10.0 17.0 0.00 0.00 0.00 42 1015.4
20260904145605 92 81 10.0 17.0 0.00 0.00 0.00 43 1015.3
20260904145504 92 71 13.0 17.0 0.00 0.00 0.00 43 1015.4
20260904145408 92 86 15.0 15.0 0.00 0.00 0.00 43 1015.3
20260904145306 92 96 8.0 14.0 0.00 0.00 0.00 43 1015.3
20260904145205 92 80 10.0 14.0 0.00 0.00 0.00 42 1015.4
20260904145107 92 101 8.0 17.0 0.00 0.00 0.00 42 1015.4
20260904145005 92 88 5.0 17.0 0.00 0.00 0.00 42 1015.3
20260904144906 92 138 11.0 17.0 0.00 0.00 0.00 42 1015.4
20260904144807 92 119 9.0 17.0 0.00 0.00 0.00 42 1015.4
20260904144704 92 98 10.0 17.0 0.00 0.00 0.00 42 1015.3
20260904144604 93 98 13.0 17.0 0.00 0.00 0.00 42 1015.3
20260904144508 93 90 9.0 17.0 0.00 0.00 0.00 41 1015.3
20260904144404 93 88 13.0 17.0 0.00 0.00 0.00 42 1015.4
20260904144304 93 69 10.0 17.0 0.00 0.00 0.00 41 1015.3
20260904144208 93 74 10.0 17.0 0.00 0.00 0.00 42 1015.4
20260904144104 93 73 14.0 17.0 0.00 0.00 0.00 42 1015.3
20260904143907 93 26 7.0 17.0 0.00 0.00 0.00 42 1015.4
20260904143804 93 71 13.0 17.0 0.00 0.00 0.00 42 1015.4
20260904143706 93 73 5.0 17.0 0.00 0.00 0.00 42 1015.4
20260904143608 93 80 11.0 17.0 0.00 0.00 0.00 41 1015.4
20260904143504 93 80 17.0 18.0 0.00 0.00 0.00 41 1015.4
20260904143404 93 61 8.0 16.0 0.00 0.00 0.00 41 1015.5
20260904143308 93 71 12.0 16.0 0.00 0.00 0.00 40 1015.5
20260904143204 93 76 7.0 16.0 0.00 0.00 0.00 40 1015.5
20260904143105 93 80 11.0 16.0 0.00 0.00 0.00 40 1015.5
20260904142905 93 86 8.0 17.0 0.00 0.00 0.00 40 1015.5
20260904142806 93 59 9.0 17.0 0.00 0.00 0.00 40 1015.6
20260904142707 93 75 15.0 17.0 0.00 0.00 0.00 40 1015.5
20260904142605 93 107 7.0 17.0 0.00 0.00 0.00 39 1015.6
20260904142505 93 80 10.0 17.0 0.00 0.00 0.00 40 1015.6
20260904142408 93 80 8.0 17.0 0.00 0.00 0.00 40 1015.6
20260904142306 93 77 11.0 17.0 0.00 0.00 0.00 39 1015.6
20260904142205 93 86 14.0 17.0 0.00 0.00 0.00 39 1015.6
20260904142107 94 75 14.0 17.0 0.00 0.00 0.00 39 1015.5
20260904142006 94 80 16.0 17.0 0.00 0.00 0.00 39 1015.5
20260904141904 94 83 9.0 17.0 0.00 0.00 0.00 39 1015.6
20260904141808 94 47 7.0 18.0 0.00 0.00 0.00 38 1015.5
20260904141705 94 76 14.0 18.0 0.00 0.00 0.00 38 1015.6
20260904141605 94 16 7.0 18.0 0.00 0.00 0.00 39 1015.6
20260904141510 94 74 9.0 18.0 0.00 0.00 0.00 39 1015.6
20260904141405 94 63 14.0 18.0 0.00 0.00 0.00 39 1015.6
20260904141306 94 64 8.0 18.0 0.00 0.00 0.00 40 1015.7
20260904141209 94 73 12.0 18.0 0.00 0.00 0.00 39 1015.6
20260904141104 94 82 11.0 18.0 0.00 0.00 0.00 38 1015.6
20260904141006 94 78 14.0 18.0 0.00 0.00 0.00 38 1015.6
20260904140909 94 88 7.0 18.0 0.00 0.00 0.00 38 1015.6
20260904140806 94 84 14.0 18.0 0.00 0.00 0.00 38 1015.6
20260904140704 94 70 13.0 18.0 0.00 0.00 0.00 38 1015.6
20260904140608 94 100 10.0 17.0 0.00 0.00 0.00 38 1015.7
20260904140505 94 81 16.0 16.0 0.00 0.00 0.00 38 1015.7
20260904140408 94 99 8.0 14.0 0.00 0.00 0.00 37 1015.7
20260904140306 94 111 12.0 15.0 0.00 0.00 0.00 37 1015.7
20260904140205 94 24 6.0 13.0 0.00 0.00 0.00 36 1015.7
20260904140119 94 61 11.0 13.0 0.00 0.00 0.00 37 1015.7
20260904140013 94 50 9.0 13.0 0.00 0.00 0.00 37 1015.7
20260904135804 94 97 13.0 13.0 0.00 0.00 0.00 38 1015.8
20260904135707 94 79 3.0 13.0 0.00 0.00 0.00 36 1015.7
20260904135407 94 80 9.0 13.0 0.00 0.00 0.00 37 1015.8
20260904135306 94 86 11.0 14.0 0.00 0.00 0.00 36 1015.8
20260904135204 94 46 10.0 14.0 0.00 0.00 0.00 36 1015.8
20260904135107 94 103 8.0 14.0 0.00 0.00 0.00 38 1015.8
20260904135005 95 72 11.0 14.0 0.00 0.00 0.00 38 1015.8
20260904134904 95 76 14.0 15.0 0.00 0.00 0.00 36 1015.8
20260904134807 95 40 7.0 12.0 0.00 0.00 0.00 36 1015.8
20260904134704 95 80 9.0 12.0 0.00 0.00 0.00 35 1015.8
20260904134606 95 42 7.0 12.0 0.00 0.00 0.00 35 1015.8
20260904134304 95 55 6.0 13.0 0.00 0.00 0.00 36 1015.8
20260904134207 95 55 8.0 14.0 0.00 0.00 0.00 38 1015.8
20260904134104 95 84 10.0 14.0 0.00 0.00 0.00 35 1015.8
20260904134007 95 28 6.0 14.0 0.00 0.00 0.00 35 1015.9
20260904133907 95 64 11.0 14.0 0.00 0.00 0.00 37 1015.9
20260904133804 95 76 10.0 14.0 0.00 0.00 0.00 37 1015.9
20260904133704 95 86 7.0 14.0 0.00 0.00 0.00 37 1015.9
20260904133609 95 61 12.0 14.0 0.00 0.00 0.00 37 1015.9
20260904133504 95 83 10.0 14.0 0.00 0.00 0.00 36 1015.9
20260904133105 95 52 10.0 14.0 0.00 0.00 0.00 35 1015.8
20260904133010 95 71 9.0 14.0 0.00 0.00 0.00 35 1015.8
20260904132805 95 41 8.0 14.0 0.00 0.00 0.00 36 1015.8
20260904132707 95 77 9.0 14.0 0.00 0.00 0.00 37 1015.8
20260904132605 95 78 11.0 14.0 0.00 0.00 0.00 36 1015.8
20260904132505 95 88 13.0 14.0 0.00 0.00 0.00 36 1015.9
20260904132408 95 78 8.0 12.0 0.00 0.00 0.00 35 1015.9
20260904132306 95 69 4.0 12.0 0.00 0.00 0.00 34 1015.9
20260904132204 95 360 4.0 12.0 0.00 0.00 0.00 34 1015.8
20260904132108 95 42 1.0 12.0 0.00 0.00 0.00 35 1015.9
20260904132007 95 89 5.0 12.0 0.00 0.00 0.00 36 1015.9
20260904131905 95 76 11.0 14.0 0.00 0.00 0.00 35 1015.9
20260904131809 95 74 8.0 16.0 0.00 0.00 0.00 34 1015.9
20260904131706 95 60 9.0 16.0 0.00 0.00 0.00 34 1015.9
20260904131606 95 94 9.0 16.0 0.00 0.00 0.00 34 1015.9
20260904131507 95 47 4.0 16.0 0.00 0.00 0.00 34 1015.9
20260904131404 95 32 7.0 16.0 0.00 0.00 0.00 35 1015.9
20260904131305 95 50 3.0 16.0 0.00 0.00 0.00 34 1015.9
20260904131209 95 68 5.0 16.0 0.00 0.00 0.00 34 1015.9
20260904131105 95 30 6.0 16.0 0.00 0.00 0.00 34 1015.9
20260904131005 95 55 9.0 16.0 0.00 0.00 0.00 35 1015.9
20260904130907 95 73 7.0 16.0 0.00 0.00 0.00 36 1015.9
20260904130804 95 38 6.0 16.0 0.00 0.00 0.00 36 1015.9
20260904130705 95 110 5.0 16.0 0.00 0.00 0.00 36 1015.9
20260904130504 95 68 7.0 16.0 0.00 0.00 0.00 34 1015.9
20260904130404 95 35 4.0 16.0 0.00 0.00 0.00 36 1015.9
20260904130308 95 94 7.0 16.0 0.00 0.00 0.00 33 1015.9
20260904130205 95 76 7.0 16.0 0.00 0.00 0.00 33 1016.0
20260904130012 95 72 9.0 16.0 0.00 0.00 0.00 34 1015.9
20260904125904 95 78 13.0 16.0 0.00 0.00 0.00 35 1015.9
20260904125805 95 41 7.0 11.0 0.00 0.00 0.00 34 1015.9
20260904125707 95 71 2.0 13.0 0.00 0.00 0.00 34 1015.9
20260904125504 95 69 4.0 13.0 0.00 0.00 0.00 33 1015.9
20260904125407 95 98 3.0 13.0 0.00 0.00 0.00 34 1015.9
20260904125306 95 99 5.0 13.0 0.00 0.00 0.00 34 1015.9
20260904125205 95 76 7.0 13.0 0.00 0.00 0.00 34 1015.9
20260904125107 95 66 7.0 13.0 0.00 0.00 0.00 36 1015.9
20260904125005 95 72 5.0 13.0 0.00 0.00 0.00 33 1016.0
20260904124904 95 109 5.0 13.0 0.00 0.00 0.00 35 1016.0
20260904124807 95 65 7.0 13.0 0.00 0.00 0.00 35 1016.0
20260904124704 95 81 10.0 14.0 0.00 0.00 0.00 35 1016.0
20260904124605 95 83 11.0 14.0 0.00 0.00 0.00 36 1016.0
20260904124508 95 85 9.0 14.0 0.00 0.00 0.00 35 1016.0
20260904124405 95 44 4.0 14.0 0.00 0.00 0.00 35 1016.0
20260904124304 95 82 9.0 14.0 0.00 0.00 0.00 35 1016.0
20260904124106 95 97 10.0 14.0 0.00 0.00 0.00 36 1016.0
20260904124006 95 90 7.0 14.0 0.00 0.00 0.00 36 1016.0
20260904123907 95 86 7.0 14.0 0.00 0.00 0.00 35 1016.0
20260904123805 95 82 5.0 15.0 0.00 0.00 0.00 34 1016.0
20260904123705 94 49 10.0 15.0 0.00 0.00 0.00 34 1016.0
20260904123607 94 52 12.0 15.0 0.00 0.00 0.00 34 1016.0
20260904123505 94 57 5.0 15.0 0.00 0.00 0.00 35 1016.0
20260904123405 94 40 9.0 15.0 0.00 0.00 0.00 33 1016.1
20260904123307 94 24 11.0 15.0 0.00 0.00 0.00 33 1016.1
20260904123204 95 49 13.0 15.0 0.00 0.00 0.00 33 1016.0
20260904123105 95 46 7.0 15.0 0.00 0.00 0.00 33 1016.1
20260904123009 95 24 9.0 15.0 0.00 0.00 0.00 33 1016.1
20260904122904 95 33 10.0 15.0 0.00 0.00 0.00 33 1016.1
20260904122805 95 40 15.0 15.0 0.00 0.00 0.00 33 1016.1
20260904122707 95 41 10.0 14.0 0.00 0.00 0.00 34 1016.1
20260904122605 95 38 11.0 14.0 0.00 0.00 0.00 34 1016.0
20260904122506 95 54 9.0 14.0 0.00 0.00 0.00 34 1016.1
20260904122409 95 46 9.0 14.0 0.00 0.00 0.00 34 1016.1
20260904122306 95 28 6.0 14.0 0.00 0.00 0.00 33 1016.1
20260904122204 95 50 8.0 14.0 0.00 0.00 0.00 33 1016.1
20260904122108 95 78 11.0 14.0 0.00 0.00 0.00 33 1016.1
20260904121807 95 63 13.0 15.0 0.00 0.00 0.00 33 1016.1
20260904121704 95 52 7.0 13.0 0.00 0.00 0.00 31 1016.2
20260904121604 95 55 5.0 13.0 0.00 0.00 0.00 30 1016.1
20260904121404 95 33 8.0 13.0 0.00 0.00 0.00 31 1016.2
20260904121104 95 71 9.0 13.0 0.00 0.00 0.00 32 1016.2
20260904121005 95 19 11.0 13.0 0.00 0.00 0.00 33 1016.3
20260904120907 95 20 7.0 13.0 0.00 0.00 0.00 30 1016.2
20260904120804 94 13 3.0 13.0 0.00 0.00 0.00 33 1016.2
20260904120704 95 339 5.0 13.0 0.00 0.00 0.00 31 1016.3
20260904120608 95 21 9.0 13.0 0.00 0.00 0.00 30 1016.3
20260904120405 95 54 6.0 13.0 0.00 0.00 0.00 30 1016.3
20260904120206 95 355 5.0 12.0 0.00 0.00 0.00 30 1016.3
20260904120118 94 40 8.0 12.0 0.00 0.00 0.00 31 1016.4
20260904120012 94 26 8.0 12.0 0.00 0.00 0.00 32 1016.4
20260904115904 94 39 6.0 12.0 0.00 0.00 0.00 31 1016.3
20260904115707 94 40 7.0 12.0 0.00 0.00 0.00 30 1016.3
20260904115604 94 29 4.0 12.0 0.00 0.00 0.00 30 1016.3
20260904115504 94 30 5.0 12.0 0.00 0.00 0.00 30 1016.4
20260904115406 94 52 9.0 12.0 0.00 0.00 0.00 30 1016.4
20260904115306 95 41 9.0 12.0 0.00 0.00 0.00 30 1016.4
20260904115005 95 39 11.0 11.0 0.00 0.00 0.00 30 1016.4
20260904114904 95 27 5.0 11.0 0.00 0.00 0.00 31 1016.5
20260904114704 95 56 8.0 11.0 0.00 0.00 0.00 32 1016.4
20260904114606 95 40 1.0 11.0 0.00 0.00 0.00 31 1016.4
20260904114509 95 120 2.0 11.0 0.00 0.00 0.00 32 1016.5
20260904114404 95 101 7.0 11.0 0.00 0.00 0.00 32 1016.4
20260904114304 95 75 7.0 11.0 0.00 0.00 0.00 31 1016.4
20260904114207 95 105 5.0 11.0 0.00 0.00 0.00 33 1016.5
20260904114106 95 80 10.0 11.0 0.00 0.00 0.00 32 1016.5
20260904113907 94 122 7.0 10.0 0.00 0.00 0.00 33 1016.5
20260904113804 94 138 4.0 10.0 0.00 0.00 0.00 35 1016.5
20260904113608 94 26 6.0 10.0 0.00 0.00 0.00 32 1016.6
20260904113504 94 28 9.0 10.0 0.00 0.00 0.00 32 1016.6
20260904113404 94 75 5.0 10.0 0.00 0.00 0.00 32 1016.6
20260904113308 94 26 6.0 10.0 0.00 0.00 0.00 34 1016.6
20260904113010 94 66 2.0 10.0 0.00 0.00 0.00 34 1016.6
20260904112804 94 19 5.0 11.0 0.00 0.00 0.00 32 1016.6
20260904112707 94 126 4.0 11.0 0.00 0.00 0.00 34 1016.7
20260904112504 94 55 8.0 11.0 0.00 0.00 0.00 31 1016.7
20260904112407 94 19 7.0 12.0 0.00 0.00 0.00 31 1016.7
20260904112306 94 25 7.0 12.0 0.00 0.00 0.00 29 1016.8
20260904112204 95 37 7.0 12.0 0.00 0.00 0.00 30 1016.8
20260904112107 95 28 6.0 12.0 0.00 0.00 0.00 30 1016.7
20260904112005 95 38 1.0 12.0 0.00 0.00 0.00 30 1016.8
20260904111905 95 42 6.0 12.0 0.00 0.00 0.00 32 1016.8
20260904111704 95 79 10.0 12.0 0.00 0.00 0.00 33 1016.8
20260904111605 94 60 5.0 12.0 0.00 0.00 0.00 33 1016.9
20260904111508 94 24 6.0 12.0 0.00 0.00 0.00 34 1016.8
20260904111404 94 77 9.0 13.0 0.00 0.00 0.00 34 1016.9
20260904111304 94 26 8.0 9.0 0.00 0.00 0.00 32 1016.9
20260904111207 94 103 5.0 9.0 0.00 0.00 0.00 33 1016.9
20260904111104 94 40 6.0 8.0 0.00 0.00 0.00 35 1016.9
20260904111006 94 71 5.0 8.0 0.00 0.00 0.00 34 1016.9
20260904110805 93 69 4.0 10.0 0.00 0.00 0.00 36 1016.9
20260904110607 93 349 8.0 10.0 0.00 0.00 0.00 32 1016.9
20260904110504 93 50 2.0 10.0 0.00 0.00 0.00 31 1017.0
20260904110404 93 360 2.0 10.0 0.00 0.00 0.00 31 1017.0
20260904110307 94 34 6.0 11.0 0.00 0.00 0.00 34 1017.0
20260904110204 94 30 6.0 11.0 0.00 0.00 0.00 33 1017.0
20260904110106 94 37 4.0 11.0 0.00 0.00 0.00 36 1017.0
20260904105904 93 120 3.0 11.0 0.00 0.00 0.00 34 1016.9
20260904105805 93 53 6.0 11.0 0.00 0.00 0.00 35 1016.9
20260904105707 93 84 2.0 11.0 0.00 0.00 0.00 35 1017.0
20260904105605 93 72 4.0 11.0 0.00 0.00 0.00 33 1017.0
20260904105506 93 84 8.0 11.0 0.00 0.00 0.00 34 1016.9
20260904105408 93 68 8.0 11.0 0.00 0.00 0.00 37 1017.0
20260904105306 93 72 11.0 12.0 0.00 0.00 0.00 37 1017.0
20260904105204 93 88 7.0 12.0 0.00 0.00 0.00 36 1017.0
20260904105108 93 45 3.0 12.0 0.00 0.00 0.00 36 1017.0
20260904105006 93 296 2.0 12.0 0.00 0.00 0.00 35 1017.0
20260904104904 93 342 3.0 12.0 0.00 0.00 0.00 36 1017.0
20260904104807 93 19 0.0 12.0 0.00 0.00 0.00 36 1017.0
20260904104705 93 19 1.0 12.0 0.00 0.00 0.00 37 1017.1
20260904104604 93 22 4.0 12.0 0.00 0.00 0.00 38 1017.0
20260904104508 93 48 3.0 12.0 0.00 0.00 0.00 37 1017.1
20260904104404 93 35 5.0 12.0 0.00 0.00 0.00 38 1017.1
20260904104304 92 71 9.0 12.0 0.00 0.00 0.00 37 1017.1
20260904104208 92 40 6.0 9.0 0.00 0.00 0.00 40 1017.1
20260904104104 92 29 3.0 8.0 0.00 0.00 0.00 39 1017.1
20260904104005 92 49 2.0 8.0 0.00 0.00 0.00 37 1017.1
20260904103908 92 9 3.0 8.0 0.00 0.00 0.00 38 1017.1
20260904103804 92 27 4.0 9.0 0.00 0.00 0.00 37 1017.1
20260904103704 92 17 4.0 9.0 0.00 0.00 0.00 37 1017.1
20260904103607 92 21 5.0 9.0 0.00 0.00 0.00 37 1017.2
20260904103405 92 55 2.0 9.0 0.00 0.00 0.00 40 1017.2
20260904103307 92 355 2.0 9.0 0.00 0.00 0.00 39 1017.2
20260904103204 92 11 3.0 9.0 0.00 0.00 0.00 38 1017.3
20260904103104 92 29 3.0 9.0 0.00 0.00 0.00 39 1017.3
20260904103009 92 30 6.0 9.0 0.00 0.00 0.00 39 1017.3
20260904102904 92 30 3.0 10.0 0.00 0.00 0.00 38 1017.3
20260904102805 92 48 6.0 10.0 0.00 0.00 0.00 39 1017.3
20260904102707 92 75 2.0 10.0 0.00 0.00 0.00 39 1017.3
20260904102604 93 49 2.0 10.0 0.00 0.00 0.00 38 1017.3
20260904102504 93 71 2.0 10.0 0.00 0.00 0.00 38 1017.2
20260904102407 93 86 5.0 10.0 0.00 0.00 0.00 40 1017.3
20260904102306 93 74 7.0 10.0 0.00 0.00 0.00 39 1017.3
20260904102205 93 51 2.0 10.0 0.00 0.00 0.00 40 1017.3
20260904102108 93 28 5.0 10.0 0.00 0.00 0.00 39 1017.3
20260904102006 92 71 5.0 10.0 0.00 0.00 0.00 42 1017.3
20260904101904 92 82 6.0 10.0 0.00 0.00 0.00 41 1017.3
20260904101807 92 84 3.0 10.0 0.00 0.00 0.00 41 1017.3
20260904101704 92 112 3.0 10.0 0.00 0.00 0.00 41 1017.3
20260904101604 92 132 3.0 10.0 0.00 0.00 0.00 43 1017.4
20260904101508 92 80 5.0 10.0 0.00 0.00 0.00 42 1017.4
20260904101404 92 132 4.0 10.0 0.00 0.00 0.00 41 1017.4
20260904101304 92 136 5.0 10.0 0.00 0.00 0.00 43 1017.4
20260904101208 92 79 8.0 10.0 0.00 0.00 0.00 41 1017.4
20260904101005 91 142 3.0 8.0 0.00 0.00 0.00 40 1017.4
20260904100908 91 121 4.0 8.0 0.00 0.00 0.00 42 1017.4
20260904100504 91 86 5.0 8.0 0.00 0.00 0.00 40 1017.4
20260904100405 91 105 3.0 8.0 0.00 0.00 0.00 41 1017.4
20260904100118 91 51 2.0 10.0 0.00 0.00 0.00 42 1017.5
20260904100011 91 93 3.0 10.0 0.00 0.00 0.00 42 1017.5
20260904095905 91 77 5.0 10.0 0.00 0.00 0.00 44 1017.5
20260904095804 91 111 3.0 10.0 0.00 0.00 0.00 41 1017.6
20260904095707 91 92 1.0 10.0 0.00 0.00 0.00 41 1017.6
20260904095604 91 137 3.0 10.0 0.00 0.00 0.00 43 1017.6
20260904095407 90 107 4.0 10.0 0.00 0.00 0.00 42 1017.6
20260904095306 90 77 4.0 10.0 0.00 0.00 0.00 42 1017.6
20260904095204 90 96 9.0 10.0 0.00 0.00 0.00 43 1017.7
20260904095107 90 86 3.0 7.0 0.00 0.00 0.00 43 1017.7
20260904095005 90 103 4.0 7.0 0.00 0.00 0.00 43 1017.7
20260904094904 90 128 6.0 7.0 0.00 0.00 0.00 42 1017.7
20260904094807 90 130 4.0 6.0 0.00 0.00 0.00 42 1017.8
20260904094604 90 69 4.0 6.0 0.00 0.00 0.00 43 1017.8
20260904094507 90 28 3.0 6.0 0.00 0.00 0.00 42 1017.8
20260904094404 90 36 3.0 6.0 0.00 0.00 0.00 43 1017.8
20260904094304 90 25 4.0 6.0 0.00 0.00 0.00 41 1017.8
20260904094207 90 30 2.0 6.0 0.00 0.00 0.00 42 1017.8
20260904094004 90 53 4.0 6.0 0.00 0.00 0.00 44 1017.9